<?xml version="1.0"?>
<gpx xmlns="http://www.topografix.com/GPX/1/1" xmlns:xsi="http://www.w3.org/2001/XMLSchema-instance" version="1.1" creator="GPX RubyGem 1.0.0 -- http://dougfales.github.io/gpx/" xsi:schemaLocation="http://www.topografix.com/GPX/1/1 http://www.topografix.com/GPX/1/1/gpx.xsd">
  <metadata>
    <name/>
    <time>2026-05-08T07:02:14+00:00</time>
    <bound minlat="90.0" minlon="180.0" maxlat="-90.0" maxlon="-180.0"/>
  </metadata>
  <trk>
    <name/>
    <trkseg>
      <trkpt lat="46.413205" lon="8.881385">
        <time>1970-01-01T00:00:00+00:00</time>
        <ele>1014.0</ele>
      </trkpt>
      <trkpt lat="46.413267" lon="8.881262">
        <time>1970-01-01T00:00:00+00:00</time>
        <ele>1014.0</ele>
      </trkpt>
      <trkpt lat="46.413309" lon="8.881332">
        <time>1970-01-01T00:00:00+00:00</time>
        <ele>1016.0</ele>
      </trkpt>
      <trkpt lat="46.413415" lon="8.881423">
        <time>1970-01-01T00:00:00+00:00</time>
        <ele>1020.0</ele>
      </trkpt>
      <trkpt lat="46.413535" lon="8.88148">
        <time>1970-01-01T00:00:00+00:00</time>
        <ele>1024.0</ele>
      </trkpt>
      <trkpt lat="46.413699" lon="8.881455">
        <time>1970-01-01T00:00:00+00:00</time>
        <ele>1028.0</ele>
      </trkpt>
      <trkpt lat="46.413788" lon="8.881465">
        <time>1970-01-01T00:00:00+00:00</time>
        <ele>1030.0</ele>
      </trkpt>
      <trkpt lat="46.413919" lon="8.881418">
        <time>1970-01-01T00:00:00+00:00</time>
        <ele>1032.0</ele>
      </trkpt>
      <trkpt lat="46.414084" lon="8.88141">
        <time>1970-01-01T00:00:00+00:00</time>
        <ele>1037.0</ele>
      </trkpt>
      <trkpt lat="46.414114" lon="8.88147">
        <time>1970-01-01T00:00:00+00:00</time>
        <ele>1039.0</ele>
      </trkpt>
      <trkpt lat="46.414117" lon="8.881545">
        <time>1970-01-01T00:00:00+00:00</time>
        <ele>1041.0</ele>
      </trkpt>
      <trkpt lat="46.41421" lon="8.881453">
        <time>1970-01-01T00:00:00+00:00</time>
        <ele>1041.0</ele>
      </trkpt>
      <trkpt lat="46.4143" lon="8.881312">
        <time>1970-01-01T00:00:00+00:00</time>
        <ele>1041.0</ele>
      </trkpt>
      <trkpt lat="46.414354" lon="8.881258">
        <time>1970-01-01T00:00:00+00:00</time>
        <ele>1041.0</ele>
      </trkpt>
      <trkpt lat="46.414543" lon="8.88121">
        <time>1970-01-01T00:00:00+00:00</time>
        <ele>1046.0</ele>
      </trkpt>
      <trkpt lat="46.414624" lon="8.881143">
        <time>1970-01-01T00:00:00+00:00</time>
        <ele>1048.0</ele>
      </trkpt>
      <trkpt lat="46.414779" lon="8.88073">
        <time>1970-01-01T00:00:00+00:00</time>
        <ele>1048.0</ele>
      </trkpt>
      <trkpt lat="46.414957" lon="8.880596">
        <time>1970-01-01T00:00:00+00:00</time>
        <ele>1051.0</ele>
      </trkpt>
      <trkpt lat="46.415327" lon="8.880392">
        <time>1970-01-01T00:00:00+00:00</time>
        <ele>1057.0</ele>
      </trkpt>
      <trkpt lat="46.415395" lon="8.880336">
        <time>1970-01-01T00:00:00+00:00</time>
        <ele>1058.0</ele>
      </trkpt>
      <trkpt lat="46.415604" lon="8.879998">
        <time>1970-01-01T00:00:00+00:00</time>
        <ele>1059.0</ele>
      </trkpt>
      <trkpt lat="46.415722" lon="8.879904">
        <time>1970-01-01T00:00:00+00:00</time>
        <ele>1062.0</ele>
      </trkpt>
      <trkpt lat="46.416098" lon="8.879727">
        <time>1970-01-01T00:00:00+00:00</time>
        <ele>1073.0</ele>
      </trkpt>
      <trkpt lat="46.416225" lon="8.87963">
        <time>1970-01-01T00:00:00+00:00</time>
        <ele>1073.0</ele>
      </trkpt>
      <trkpt lat="46.416545" lon="8.879232">
        <time>1970-01-01T00:00:00+00:00</time>
        <ele>1071.0</ele>
      </trkpt>
      <trkpt lat="46.416782" lon="8.879087">
        <time>1970-01-01T00:00:00+00:00</time>
        <ele>1075.0</ele>
      </trkpt>
      <trkpt lat="46.416874" lon="8.879098">
        <time>1970-01-01T00:00:00+00:00</time>
        <ele>1077.0</ele>
      </trkpt>
      <trkpt lat="46.416963" lon="8.879178">
        <time>1970-01-01T00:00:00+00:00</time>
        <ele>1081.0</ele>
      </trkpt>
      <trkpt lat="46.417122" lon="8.879194">
        <time>1970-01-01T00:00:00+00:00</time>
        <ele>1087.0</ele>
      </trkpt>
      <trkpt lat="46.417266" lon="8.879103">
        <time>1970-01-01T00:00:00+00:00</time>
        <ele>1089.0</ele>
      </trkpt>
      <trkpt lat="46.417384" lon="8.878894">
        <time>1970-01-01T00:00:00+00:00</time>
        <ele>1086.0</ele>
      </trkpt>
      <trkpt lat="46.417514" lon="8.878577">
        <time>1970-01-01T00:00:00+00:00</time>
        <ele>1083.0</ele>
      </trkpt>
      <trkpt lat="46.417763" lon="8.878247">
        <time>1970-01-01T00:00:00+00:00</time>
        <ele>1083.0</ele>
      </trkpt>
      <trkpt lat="46.417997" lon="8.878239">
        <time>1970-01-01T00:00:00+00:00</time>
        <ele>1090.0</ele>
      </trkpt>
      <trkpt lat="46.418068" lon="8.878261">
        <time>1970-01-01T00:00:00+00:00</time>
        <ele>1092.0</ele>
      </trkpt>
      <trkpt lat="46.418121" lon="8.878317">
        <time>1970-01-01T00:00:00+00:00</time>
        <ele>1096.0</ele>
      </trkpt>
      <trkpt lat="46.418125" lon="8.878406">
        <time>1970-01-01T00:00:00+00:00</time>
        <ele>1100.0</ele>
      </trkpt>
      <trkpt lat="46.418103" lon="8.878465">
        <time>1970-01-01T00:00:00+00:00</time>
        <ele>1102.0</ele>
      </trkpt>
      <trkpt lat="46.418055" lon="8.878497">
        <time>1970-01-01T00:00:00+00:00</time>
        <ele>1102.0</ele>
      </trkpt>
      <trkpt lat="46.417901" lon="8.878478">
        <time>1970-01-01T00:00:00+00:00</time>
        <ele>1098.0</ele>
      </trkpt>
      <trkpt lat="46.417836" lon="8.878537">
        <time>1970-01-01T00:00:00+00:00</time>
        <ele>1097.0</ele>
      </trkpt>
      <trkpt lat="46.417731" lon="8.878768">
        <time>1970-01-01T00:00:00+00:00</time>
        <ele>1098.0</ele>
      </trkpt>
      <trkpt lat="46.417631" lon="8.878846">
        <time>1970-01-01T00:00:00+00:00</time>
        <ele>1095.0</ele>
      </trkpt>
      <trkpt lat="46.417603" lon="8.878902">
        <time>1970-01-01T00:00:00+00:00</time>
        <ele>1096.0</ele>
      </trkpt>
      <trkpt lat="46.417605" lon="8.878966">
        <time>1970-01-01T00:00:00+00:00</time>
        <ele>1098.0</ele>
      </trkpt>
      <trkpt lat="46.417683" lon="8.879272">
        <time>1970-01-01T00:00:00+00:00</time>
        <ele>1112.0</ele>
      </trkpt>
      <trkpt lat="46.417541" lon="8.879548">
        <time>1970-01-01T00:00:00+00:00</time>
        <ele>1116.0</ele>
      </trkpt>
      <trkpt lat="46.417282" lon="8.879779">
        <time>1970-01-01T00:00:00+00:00</time>
        <ele>1119.0</ele>
      </trkpt>
      <trkpt lat="46.417119" lon="8.880042">
        <time>1970-01-01T00:00:00+00:00</time>
        <ele>1125.0</ele>
      </trkpt>
      <trkpt lat="46.416824" lon="8.880643">
        <time>1970-01-01T00:00:00+00:00</time>
        <ele>1137.0</ele>
      </trkpt>
      <trkpt lat="46.416386" lon="8.880998">
        <time>1970-01-01T00:00:00+00:00</time>
        <ele>1129.0</ele>
      </trkpt>
      <trkpt lat="46.416279" lon="8.881231">
        <time>1970-01-01T00:00:00+00:00</time>
        <ele>1130.0</ele>
      </trkpt>
      <trkpt lat="46.41603" lon="8.881639">
        <time>1970-01-01T00:00:00+00:00</time>
        <ele>1131.0</ele>
      </trkpt>
      <trkpt lat="46.415851" lon="8.881976">
        <time>1970-01-01T00:00:00+00:00</time>
        <ele>1128.0</ele>
      </trkpt>
      <trkpt lat="46.415832" lon="8.882145">
        <time>1970-01-01T00:00:00+00:00</time>
        <ele>1131.0</ele>
      </trkpt>
      <trkpt lat="46.415871" lon="8.882212">
        <time>1970-01-01T00:00:00+00:00</time>
        <ele>1136.0</ele>
      </trkpt>
      <trkpt lat="46.415934" lon="8.882174">
        <time>1970-01-01T00:00:00+00:00</time>
        <ele>1139.0</ele>
      </trkpt>
      <trkpt lat="46.415965" lon="8.882099">
        <time>1970-01-01T00:00:00+00:00</time>
        <ele>1140.0</ele>
      </trkpt>
      <trkpt lat="46.416209" lon="8.881702">
        <time>1970-01-01T00:00:00+00:00</time>
        <ele>1145.0</ele>
      </trkpt>
      <trkpt lat="46.416451" lon="8.881375">
        <time>1970-01-01T00:00:00+00:00</time>
        <ele>1142.0</ele>
      </trkpt>
      <trkpt lat="46.417002" lon="8.881045">
        <time>1970-01-01T00:00:00+00:00</time>
        <ele>1159.0</ele>
      </trkpt>
      <trkpt lat="46.417534" lon="8.880593">
        <time>1970-01-01T00:00:00+00:00</time>
        <ele>1161.0</ele>
      </trkpt>
      <trkpt lat="46.417778" lon="8.880509">
        <time>1970-01-01T00:00:00+00:00</time>
        <ele>1168.0</ele>
      </trkpt>
      <trkpt lat="46.418041" lon="8.880662">
        <time>1970-01-01T00:00:00+00:00</time>
        <ele>1182.0</ele>
      </trkpt>
      <trkpt lat="46.418217" lon="8.880581">
        <time>1970-01-01T00:00:00+00:00</time>
        <ele>1180.0</ele>
      </trkpt>
      <trkpt lat="46.418465" lon="8.880579">
        <time>1970-01-01T00:00:00+00:00</time>
        <ele>1182.0</ele>
      </trkpt>
      <trkpt lat="46.418577" lon="8.880466">
        <time>1970-01-01T00:00:00+00:00</time>
        <ele>1181.0</ele>
      </trkpt>
      <trkpt lat="46.418694" lon="8.880246">
        <time>1970-01-01T00:00:00+00:00</time>
        <ele>1181.0</ele>
      </trkpt>
      <trkpt lat="46.419041" lon="8.879879">
        <time>1970-01-01T00:00:00+00:00</time>
        <ele>1188.0</ele>
      </trkpt>
      <trkpt lat="46.419186" lon="8.879888">
        <time>1970-01-01T00:00:00+00:00</time>
        <ele>1193.0</ele>
      </trkpt>
      <trkpt lat="46.41962" lon="8.879817">
        <time>1970-01-01T00:00:00+00:00</time>
        <ele>1199.0</ele>
      </trkpt>
      <trkpt lat="46.419751" lon="8.87974">
        <time>1970-01-01T00:00:00+00:00</time>
        <ele>1195.0</ele>
      </trkpt>
      <trkpt lat="46.419936" lon="8.879591">
        <time>1970-01-01T00:00:00+00:00</time>
        <ele>1188.0</ele>
      </trkpt>
      <trkpt lat="46.420016" lon="8.879629">
        <time>1970-01-01T00:00:00+00:00</time>
        <ele>1192.0</ele>
      </trkpt>
      <trkpt lat="46.420021" lon="8.879771">
        <time>1970-01-01T00:00:00+00:00</time>
        <ele>1201.0</ele>
      </trkpt>
      <trkpt lat="46.419851" lon="8.879886">
        <time>1970-01-01T00:00:00+00:00</time>
        <ele>1207.0</ele>
      </trkpt>
      <trkpt lat="46.419147" lon="8.880149">
        <time>1970-01-01T00:00:00+00:00</time>
        <ele>1202.0</ele>
      </trkpt>
      <trkpt lat="46.418995" lon="8.880647">
        <time>1970-01-01T00:00:00+00:00</time>
        <ele>1204.0</ele>
      </trkpt>
      <trkpt lat="46.418968" lon="8.880916">
        <time>1970-01-01T00:00:00+00:00</time>
        <ele>1210.0</ele>
      </trkpt>
      <trkpt lat="46.418808" lon="8.881348">
        <time>1970-01-01T00:00:00+00:00</time>
        <ele>1220.0</ele>
      </trkpt>
      <trkpt lat="46.418132" lon="8.881485">
        <time>1970-01-01T00:00:00+00:00</time>
        <ele>1224.0</ele>
      </trkpt>
      <trkpt lat="46.41782" lon="8.881608">
        <time>1970-01-01T00:00:00+00:00</time>
        <ele>1224.0</ele>
      </trkpt>
      <trkpt lat="46.417583" lon="8.881742">
        <time>1970-01-01T00:00:00+00:00</time>
        <ele>1220.0</ele>
      </trkpt>
      <trkpt lat="46.417234" lon="8.882424">
        <time>1970-01-01T00:00:00+00:00</time>
        <ele>1230.0</ele>
      </trkpt>
      <trkpt lat="46.417534" lon="8.882758">
        <time>1970-01-01T00:00:00+00:00</time>
        <ele>1263.0</ele>
      </trkpt>
      <trkpt lat="46.417385" lon="8.883113">
        <time>1970-01-01T00:00:00+00:00</time>
        <ele>1274.0</ele>
      </trkpt>
      <trkpt lat="46.417507" lon="8.883446">
        <time>1970-01-01T00:00:00+00:00</time>
        <ele>1295.0</ele>
      </trkpt>
      <trkpt lat="46.417713" lon="8.883525">
        <time>1970-01-01T00:00:00+00:00</time>
        <ele>1309.0</ele>
      </trkpt>
      <trkpt lat="46.417862" lon="8.883483">
        <time>1970-01-01T00:00:00+00:00</time>
        <ele>1314.0</ele>
      </trkpt>
      <trkpt lat="46.418026" lon="8.883288">
        <time>1970-01-01T00:00:00+00:00</time>
        <ele>1313.0</ele>
      </trkpt>
      <trkpt lat="46.41827" lon="8.883141">
        <time>1970-01-01T00:00:00+00:00</time>
        <ele>1320.0</ele>
      </trkpt>
      <trkpt lat="46.418434" lon="8.883171">
        <time>1970-01-01T00:00:00+00:00</time>
        <ele>1329.0</ele>
      </trkpt>
      <trkpt lat="46.418545" lon="8.883302">
        <time>1970-01-01T00:00:00+00:00</time>
        <ele>1338.0</ele>
      </trkpt>
      <trkpt lat="46.418503" lon="8.883372">
        <time>1970-01-01T00:00:00+00:00</time>
        <ele>1340.0</ele>
      </trkpt>
      <trkpt lat="46.418545" lon="8.883824">
        <time>1970-01-01T00:00:00+00:00</time>
        <ele>1359.0</ele>
      </trkpt>
      <trkpt lat="46.418682" lon="8.883959">
        <time>1970-01-01T00:00:00+00:00</time>
        <ele>1368.0</ele>
      </trkpt>
      <trkpt lat="46.418518" lon="8.883988">
        <time>1970-01-01T00:00:00+00:00</time>
        <ele>1363.0</ele>
      </trkpt>
      <trkpt lat="46.418407" lon="8.884078">
        <time>1970-01-01T00:00:00+00:00</time>
        <ele>1361.0</ele>
      </trkpt>
      <trkpt lat="46.418503" lon="8.884444">
        <time>1970-01-01T00:00:00+00:00</time>
        <ele>1375.0</ele>
      </trkpt>
      <trkpt lat="46.418365" lon="8.884516">
        <time>1970-01-01T00:00:00+00:00</time>
        <ele>1374.0</ele>
      </trkpt>
      <trkpt lat="46.418709" lon="8.884623">
        <time>1970-01-01T00:00:00+00:00</time>
        <ele>1386.0</ele>
      </trkpt>
      <trkpt lat="46.418819" lon="8.884312">
        <time>1970-01-01T00:00:00+00:00</time>
        <ele>1382.0</ele>
      </trkpt>
      <trkpt lat="46.418926" lon="8.884546">
        <time>1970-01-01T00:00:00+00:00</time>
        <ele>1393.0</ele>
      </trkpt>
      <trkpt lat="46.419159" lon="8.884737">
        <time>1970-01-01T00:00:00+00:00</time>
        <ele>1406.0</ele>
      </trkpt>
      <trkpt lat="46.41935" lon="8.884981">
        <time>1970-01-01T00:00:00+00:00</time>
        <ele>1421.0</ele>
      </trkpt>
      <trkpt lat="46.419312" lon="8.88518">
        <time>1970-01-01T00:00:00+00:00</time>
        <ele>1423.0</ele>
      </trkpt>
      <trkpt lat="46.41909" lon="8.885257">
        <time>1970-01-01T00:00:00+00:00</time>
        <ele>1413.0</ele>
      </trkpt>
      <trkpt lat="46.418968" lon="8.8852">
        <time>1970-01-01T00:00:00+00:00</time>
        <ele>1407.0</ele>
      </trkpt>
      <trkpt lat="46.418846" lon="8.885416">
        <time>1970-01-01T00:00:00+00:00</time>
        <ele>1406.0</ele>
      </trkpt>
      <trkpt lat="46.418819" lon="8.885583">
        <time>1970-01-01T00:00:00+00:00</time>
        <ele>1408.0</ele>
      </trkpt>
      <trkpt lat="46.418629" lon="8.885563">
        <time>1970-01-01T00:00:00+00:00</time>
        <ele>1401.0</ele>
      </trkpt>
      <trkpt lat="46.418682" lon="8.885786">
        <time>1970-01-01T00:00:00+00:00</time>
        <ele>1406.0</ele>
      </trkpt>
      <trkpt lat="46.418667" lon="8.885988">
        <time>1970-01-01T00:00:00+00:00</time>
        <ele>1411.0</ele>
      </trkpt>
      <trkpt lat="46.418465" lon="8.886257">
        <time>1970-01-01T00:00:00+00:00</time>
        <ele>1418.0</ele>
      </trkpt>
      <trkpt lat="46.418259" lon="8.886254">
        <time>1970-01-01T00:00:00+00:00</time>
        <ele>1418.0</ele>
      </trkpt>
      <trkpt lat="46.418026" lon="8.886438">
        <time>1970-01-01T00:00:00+00:00</time>
        <ele>1420.0</ele>
      </trkpt>
      <trkpt lat="46.417973" lon="8.886683">
        <time>1970-01-01T00:00:00+00:00</time>
        <ele>1423.0</ele>
      </trkpt>
      <trkpt lat="46.417904" lon="8.886799">
        <time>1970-01-01T00:00:00+00:00</time>
        <ele>1424.0</ele>
      </trkpt>
      <trkpt lat="46.417889" lon="8.886983">
        <time>1970-01-01T00:00:00+00:00</time>
        <ele>1426.0</ele>
      </trkpt>
      <trkpt lat="46.417942" lon="8.887206">
        <time>1970-01-01T00:00:00+00:00</time>
        <ele>1429.0</ele>
      </trkpt>
      <trkpt lat="46.417942" lon="8.887407">
        <time>1970-01-01T00:00:00+00:00</time>
        <ele>1430.0</ele>
      </trkpt>
      <trkpt lat="46.417973" lon="8.887554">
        <time>1970-01-01T00:00:00+00:00</time>
        <ele>1432.0</ele>
      </trkpt>
      <trkpt lat="46.417984" lon="8.887731">
        <time>1970-01-01T00:00:00+00:00</time>
        <ele>1434.0</ele>
      </trkpt>
      <trkpt lat="46.418079" lon="8.887998">
        <time>1970-01-01T00:00:00+00:00</time>
        <ele>1439.0</ele>
      </trkpt>
      <trkpt lat="46.418053" lon="8.888195">
        <time>1970-01-01T00:00:00+00:00</time>
        <ele>1440.0</ele>
      </trkpt>
      <trkpt lat="46.41819" lon="8.888234">
        <time>1970-01-01T00:00:00+00:00</time>
        <ele>1444.0</ele>
      </trkpt>
      <trkpt lat="46.418137" lon="8.888481">
        <time>1970-01-01T00:00:00+00:00</time>
        <ele>1446.0</ele>
      </trkpt>
      <trkpt lat="46.418205" lon="8.888492">
        <time>1970-01-01T00:00:00+00:00</time>
        <ele>1449.0</ele>
      </trkpt>
      <trkpt lat="46.417999" lon="8.889276">
        <time>1970-01-01T00:00:00+00:00</time>
        <ele>1455.0</ele>
      </trkpt>
      <trkpt lat="46.417868" lon="8.889659">
        <time>1970-01-01T00:00:00+00:00</time>
        <ele>1457.0</ele>
      </trkpt>
      <trkpt lat="46.417826" lon="8.889844">
        <time>1970-01-01T00:00:00+00:00</time>
        <ele>1459.0</ele>
      </trkpt>
      <trkpt lat="46.417872" lon="8.890123">
        <time>1970-01-01T00:00:00+00:00</time>
        <ele>1467.0</ele>
      </trkpt>
      <trkpt lat="46.417928" lon="8.889734">
        <time>1970-01-01T00:00:00+00:00</time>
        <ele>1461.0</ele>
      </trkpt>
      <trkpt lat="46.417976" lon="8.889677">
        <time>1970-01-01T00:00:00+00:00</time>
        <ele>1462.0</ele>
      </trkpt>
      <trkpt lat="46.418149" lon="8.889599">
        <time>1970-01-01T00:00:00+00:00</time>
        <ele>1468.0</ele>
      </trkpt>
      <trkpt lat="46.418192" lon="8.8895">
        <time>1970-01-01T00:00:00+00:00</time>
        <ele>1468.0</ele>
      </trkpt>
      <trkpt lat="46.418224" lon="8.889362">
        <time>1970-01-01T00:00:00+00:00</time>
        <ele>1466.0</ele>
      </trkpt>
      <trkpt lat="46.418277" lon="8.889277">
        <time>1970-01-01T00:00:00+00:00</time>
        <ele>1466.0</ele>
      </trkpt>
      <trkpt lat="46.418427" lon="8.889097">
        <time>1970-01-01T00:00:00+00:00</time>
        <ele>1470.0</ele>
      </trkpt>
      <trkpt lat="46.418935" lon="8.888373">
        <time>1970-01-01T00:00:00+00:00</time>
        <ele>1483.0</ele>
      </trkpt>
      <trkpt lat="46.419037" lon="8.888129">
        <time>1970-01-01T00:00:00+00:00</time>
        <ele>1485.0</ele>
      </trkpt>
      <trkpt lat="46.419194" lon="8.887936">
        <time>1970-01-01T00:00:00+00:00</time>
        <ele>1489.0</ele>
      </trkpt>
      <trkpt lat="46.419428" lon="8.887571">
        <time>1970-01-01T00:00:00+00:00</time>
        <ele>1489.0</ele>
      </trkpt>
      <trkpt lat="46.419616" lon="8.887416">
        <time>1970-01-01T00:00:00+00:00</time>
        <ele>1495.0</ele>
      </trkpt>
      <trkpt lat="46.419708" lon="8.887366">
        <time>1970-01-01T00:00:00+00:00</time>
        <ele>1496.0</ele>
      </trkpt>
      <trkpt lat="46.420103" lon="8.887453">
        <time>1970-01-01T00:00:00+00:00</time>
        <ele>1512.0</ele>
      </trkpt>
      <trkpt lat="46.420255" lon="8.88729">
        <time>1970-01-01T00:00:00+00:00</time>
        <ele>1511.0</ele>
      </trkpt>
      <trkpt lat="46.420431" lon="8.88704">
        <time>1970-01-01T00:00:00+00:00</time>
        <ele>1512.0</ele>
      </trkpt>
      <trkpt lat="46.420421" lon="8.886826">
        <time>1970-01-01T00:00:00+00:00</time>
        <ele>1506.0</ele>
      </trkpt>
      <trkpt lat="46.420477" lon="8.886654">
        <time>1970-01-01T00:00:00+00:00</time>
        <ele>1506.0</ele>
      </trkpt>
      <trkpt lat="46.420606" lon="8.886434">
        <time>1970-01-01T00:00:00+00:00</time>
        <ele>1510.0</ele>
      </trkpt>
      <trkpt lat="46.420756" lon="8.886266">
        <time>1970-01-01T00:00:00+00:00</time>
        <ele>1514.0</ele>
      </trkpt>
      <trkpt lat="46.420895" lon="8.886065">
        <time>1970-01-01T00:00:00+00:00</time>
        <ele>1514.0</ele>
      </trkpt>
      <trkpt lat="46.421009" lon="8.885861">
        <time>1970-01-01T00:00:00+00:00</time>
        <ele>1513.0</ele>
      </trkpt>
      <trkpt lat="46.421107" lon="8.885759">
        <time>1970-01-01T00:00:00+00:00</time>
        <ele>1514.0</ele>
      </trkpt>
      <trkpt lat="46.42129" lon="8.885644">
        <time>1970-01-01T00:00:00+00:00</time>
        <ele>1515.0</ele>
      </trkpt>
      <trkpt lat="46.42149" lon="8.885617">
        <time>1970-01-01T00:00:00+00:00</time>
        <ele>1520.0</ele>
      </trkpt>
      <trkpt lat="46.42169" lon="8.885647">
        <time>1970-01-01T00:00:00+00:00</time>
        <ele>1523.0</ele>
      </trkpt>
      <trkpt lat="46.421886" lon="8.885706">
        <time>1970-01-01T00:00:00+00:00</time>
        <ele>1529.0</ele>
      </trkpt>
      <trkpt lat="46.422209" lon="8.885682">
        <time>1970-01-01T00:00:00+00:00</time>
        <ele>1537.0</ele>
      </trkpt>
      <trkpt lat="46.422349" lon="8.885617">
        <time>1970-01-01T00:00:00+00:00</time>
        <ele>1539.0</ele>
      </trkpt>
      <trkpt lat="46.422549" lon="8.885531">
        <time>1970-01-01T00:00:00+00:00</time>
        <ele>1541.0</ele>
      </trkpt>
      <trkpt lat="46.422704" lon="8.885494">
        <time>1970-01-01T00:00:00+00:00</time>
        <ele>1544.0</ele>
      </trkpt>
      <trkpt lat="46.422859" lon="8.885526">
        <time>1970-01-01T00:00:00+00:00</time>
        <ele>1547.0</ele>
      </trkpt>
      <trkpt lat="46.422959" lon="8.885666">
        <time>1970-01-01T00:00:00+00:00</time>
        <ele>1552.0</ele>
      </trkpt>
      <trkpt lat="46.42317" lon="8.885816">
        <time>1970-01-01T00:00:00+00:00</time>
        <ele>1558.0</ele>
      </trkpt>
      <trkpt lat="46.423351" lon="8.885869">
        <time>1970-01-01T00:00:00+00:00</time>
        <ele>1560.0</ele>
      </trkpt>
      <trkpt lat="46.423536" lon="8.886052">
        <time>1970-01-01T00:00:00+00:00</time>
        <ele>1565.0</ele>
      </trkpt>
      <trkpt lat="46.423625" lon="8.886181">
        <time>1970-01-01T00:00:00+00:00</time>
        <ele>1570.0</ele>
      </trkpt>
      <trkpt lat="46.423884" lon="8.886368">
        <time>1970-01-01T00:00:00+00:00</time>
        <ele>1579.0</ele>
      </trkpt>
      <trkpt lat="46.424028" lon="8.886449">
        <time>1970-01-01T00:00:00+00:00</time>
        <ele>1583.0</ele>
      </trkpt>
      <trkpt lat="46.424283" lon="8.886513">
        <time>1970-01-01T00:00:00+00:00</time>
        <ele>1584.0</ele>
      </trkpt>
      <trkpt lat="46.424486" lon="8.886561">
        <time>1970-01-01T00:00:00+00:00</time>
        <ele>1587.0</ele>
      </trkpt>
      <trkpt lat="46.424634" lon="8.886556">
        <time>1970-01-01T00:00:00+00:00</time>
        <ele>1588.0</ele>
      </trkpt>
      <trkpt lat="46.424745" lon="8.886486">
        <time>1970-01-01T00:00:00+00:00</time>
        <ele>1585.0</ele>
      </trkpt>
      <trkpt lat="46.424815" lon="8.886234">
        <time>1970-01-01T00:00:00+00:00</time>
        <ele>1574.0</ele>
      </trkpt>
      <trkpt lat="46.424823" lon="8.886068">
        <time>1970-01-01T00:00:00+00:00</time>
        <ele>1565.0</ele>
      </trkpt>
      <trkpt lat="46.424915" lon="8.885762">
        <time>1970-01-01T00:00:00+00:00</time>
        <ele>1563.0</ele>
      </trkpt>
      <trkpt lat="46.425278" lon="8.885269">
        <time>1970-01-01T00:00:00+00:00</time>
        <ele>1575.0</ele>
      </trkpt>
      <trkpt lat="46.425389" lon="8.884909">
        <time>1970-01-01T00:00:00+00:00</time>
        <ele>1575.0</ele>
      </trkpt>
      <trkpt lat="46.425501" lon="8.884735">
        <time>1970-01-01T00:00:00+00:00</time>
        <ele>1576.0</ele>
      </trkpt>
      <trkpt lat="46.425667" lon="8.884718">
        <time>1970-01-01T00:00:00+00:00</time>
        <ele>1581.0</ele>
      </trkpt>
      <trkpt lat="46.425802" lon="8.884633">
        <time>1970-01-01T00:00:00+00:00</time>
        <ele>1580.0</ele>
      </trkpt>
      <trkpt lat="46.426312" lon="8.884611">
        <time>1970-01-01T00:00:00+00:00</time>
        <ele>1583.0</ele>
      </trkpt>
      <trkpt lat="46.426481" lon="8.884448">
        <time>1970-01-01T00:00:00+00:00</time>
        <ele>1577.0</ele>
      </trkpt>
      <trkpt lat="46.426697" lon="8.884032">
        <time>1970-01-01T00:00:00+00:00</time>
        <ele>1567.0</ele>
      </trkpt>
      <trkpt lat="46.427248" lon="8.883884">
        <time>1970-01-01T00:00:00+00:00</time>
        <ele>1575.0</ele>
      </trkpt>
      <trkpt lat="46.428098" lon="8.883852">
        <time>1970-01-01T00:00:00+00:00</time>
        <ele>1580.0</ele>
      </trkpt>
      <trkpt lat="46.428723" lon="8.883426">
        <time>1970-01-01T00:00:00+00:00</time>
        <ele>1579.0</ele>
      </trkpt>
      <trkpt lat="46.429644" lon="8.882653">
        <time>1970-01-01T00:00:00+00:00</time>
        <ele>1605.0</ele>
      </trkpt>
      <trkpt lat="46.430043" lon="8.882495">
        <time>1970-01-01T00:00:00+00:00</time>
        <ele>1622.0</ele>
      </trkpt>
      <trkpt lat="46.430119" lon="8.882125">
        <time>1970-01-01T00:00:00+00:00</time>
        <ele>1614.0</ele>
      </trkpt>
      <trkpt lat="46.430367" lon="8.882044">
        <time>1970-01-01T00:00:00+00:00</time>
        <ele>1620.0</ele>
      </trkpt>
      <trkpt lat="46.430731" lon="8.881806">
        <time>1970-01-01T00:00:00+00:00</time>
        <ele>1621.0</ele>
      </trkpt>
      <trkpt lat="46.43089" lon="8.881755">
        <time>1970-01-01T00:00:00+00:00</time>
        <ele>1620.0</ele>
      </trkpt>
      <trkpt lat="46.430992" lon="8.881848">
        <time>1970-01-01T00:00:00+00:00</time>
        <ele>1625.0</ele>
      </trkpt>
      <trkpt lat="46.431358" lon="8.881696">
        <time>1970-01-01T00:00:00+00:00</time>
        <ele>1621.0</ele>
      </trkpt>
      <trkpt lat="46.431781" lon="8.881743">
        <time>1970-01-01T00:00:00+00:00</time>
        <ele>1620.0</ele>
      </trkpt>
      <trkpt lat="46.431892" lon="8.881676">
        <time>1970-01-01T00:00:00+00:00</time>
        <ele>1615.0</ele>
      </trkpt>
      <trkpt lat="46.432056" lon="8.881468">
        <time>1970-01-01T00:00:00+00:00</time>
        <ele>1604.0</ele>
      </trkpt>
      <trkpt lat="46.432312" lon="8.88128">
        <time>1970-01-01T00:00:00+00:00</time>
        <ele>1610.0</ele>
      </trkpt>
      <trkpt lat="46.432402" lon="8.881183">
        <time>1970-01-01T00:00:00+00:00</time>
        <ele>1612.0</ele>
      </trkpt>
      <trkpt lat="46.432564" lon="8.881095">
        <time>1970-01-01T00:00:00+00:00</time>
        <ele>1615.0</ele>
      </trkpt>
      <trkpt lat="46.432573" lon="8.881113">
        <time>1970-01-01T00:00:00+00:00</time>
        <ele>1616.0</ele>
      </trkpt>
      <trkpt lat="46.432403" lon="8.881286">
        <time>1970-01-01T00:00:00+00:00</time>
        <ele>1616.0</ele>
      </trkpt>
      <trkpt lat="46.432384" lon="8.881378">
        <time>1970-01-01T00:00:00+00:00</time>
        <ele>1620.0</ele>
      </trkpt>
      <trkpt lat="46.43234" lon="8.881427">
        <time>1970-01-01T00:00:00+00:00</time>
        <ele>1619.0</ele>
      </trkpt>
      <trkpt lat="46.432347" lon="8.881521">
        <time>1970-01-01T00:00:00+00:00</time>
        <ele>1625.0</ele>
      </trkpt>
      <trkpt lat="46.43223" lon="8.881663">
        <time>1970-01-01T00:00:00+00:00</time>
        <ele>1627.0</ele>
      </trkpt>
      <trkpt lat="46.432235" lon="8.881727">
        <time>1970-01-01T00:00:00+00:00</time>
        <ele>1632.0</ele>
      </trkpt>
      <trkpt lat="46.432201" lon="8.881789">
        <time>1970-01-01T00:00:00+00:00</time>
        <ele>1634.0</ele>
      </trkpt>
      <trkpt lat="46.432204" lon="8.881899">
        <time>1970-01-01T00:00:00+00:00</time>
        <ele>1640.0</ele>
      </trkpt>
      <trkpt lat="46.432395" lon="8.881738">
        <time>1970-01-01T00:00:00+00:00</time>
        <ele>1640.0</ele>
      </trkpt>
      <trkpt lat="46.43246" lon="8.881714">
        <time>1970-01-01T00:00:00+00:00</time>
        <ele>1641.0</ele>
      </trkpt>
      <trkpt lat="46.43244" lon="8.88159">
        <time>1970-01-01T00:00:00+00:00</time>
        <ele>1633.0</ele>
      </trkpt>
      <trkpt lat="46.432576" lon="8.881505">
        <time>1970-01-01T00:00:00+00:00</time>
        <ele>1632.0</ele>
      </trkpt>
      <trkpt lat="46.432927" lon="8.881416">
        <time>1970-01-01T00:00:00+00:00</time>
        <ele>1639.0</ele>
      </trkpt>
      <trkpt lat="46.433013" lon="8.881321">
        <time>1970-01-01T00:00:00+00:00</time>
        <ele>1637.0</ele>
      </trkpt>
      <trkpt lat="46.433165" lon="8.881233">
        <time>1970-01-01T00:00:00+00:00</time>
        <ele>1639.0</ele>
      </trkpt>
      <trkpt lat="46.433271" lon="8.881244">
        <time>1970-01-01T00:00:00+00:00</time>
        <ele>1644.0</ele>
      </trkpt>
      <trkpt lat="46.433313" lon="8.881267">
        <time>1970-01-01T00:00:00+00:00</time>
        <ele>1648.0</ele>
      </trkpt>
      <trkpt lat="46.433381" lon="8.881213">
        <time>1970-01-01T00:00:00+00:00</time>
        <ele>1649.0</ele>
      </trkpt>
      <trkpt lat="46.433443" lon="8.881222">
        <time>1970-01-01T00:00:00+00:00</time>
        <ele>1653.0</ele>
      </trkpt>
      <trkpt lat="46.433497" lon="8.881128">
        <time>1970-01-01T00:00:00+00:00</time>
        <ele>1653.0</ele>
      </trkpt>
      <trkpt lat="46.433579" lon="8.881076">
        <time>1970-01-01T00:00:00+00:00</time>
        <ele>1656.0</ele>
      </trkpt>
      <trkpt lat="46.433607" lon="8.880948">
        <time>1970-01-01T00:00:00+00:00</time>
        <ele>1654.0</ele>
      </trkpt>
      <trkpt lat="46.43361" lon="8.880846">
        <time>1970-01-01T00:00:00+00:00</time>
        <ele>1652.0</ele>
      </trkpt>
      <trkpt lat="46.433646" lon="8.88073">
        <time>1970-01-01T00:00:00+00:00</time>
        <ele>1651.0</ele>
      </trkpt>
      <trkpt lat="46.433685" lon="8.880687">
        <time>1970-01-01T00:00:00+00:00</time>
        <ele>1653.0</ele>
      </trkpt>
      <trkpt lat="46.43369" lon="8.88056">
        <time>1970-01-01T00:00:00+00:00</time>
        <ele>1651.0</ele>
      </trkpt>
      <trkpt lat="46.433751" lon="8.88041">
        <time>1970-01-01T00:00:00+00:00</time>
        <ele>1655.0</ele>
      </trkpt>
      <trkpt lat="46.433834" lon="8.880294">
        <time>1970-01-01T00:00:00+00:00</time>
        <ele>1663.0</ele>
      </trkpt>
      <trkpt lat="46.433779" lon="8.880178">
        <time>1970-01-01T00:00:00+00:00</time>
        <ele>1656.0</ele>
      </trkpt>
      <trkpt lat="46.433808" lon="8.87992">
        <time>1970-01-01T00:00:00+00:00</time>
        <ele>1657.0</ele>
      </trkpt>
      <trkpt lat="46.43386" lon="8.879813">
        <time>1970-01-01T00:00:00+00:00</time>
        <ele>1662.0</ele>
      </trkpt>
      <trkpt lat="46.433835" lon="8.879638">
        <time>1970-01-01T00:00:00+00:00</time>
        <ele>1658.0</ele>
      </trkpt>
      <trkpt lat="46.433858" lon="8.879437">
        <time>1970-01-01T00:00:00+00:00</time>
        <ele>1659.0</ele>
      </trkpt>
      <trkpt lat="46.434036" lon="8.879394">
        <time>1970-01-01T00:00:00+00:00</time>
        <ele>1675.0</ele>
      </trkpt>
      <trkpt lat="46.434134" lon="8.878928">
        <time>1970-01-01T00:00:00+00:00</time>
        <ele>1679.0</ele>
      </trkpt>
      <trkpt lat="46.434205" lon="8.878867">
        <time>1970-01-01T00:00:00+00:00</time>
        <ele>1684.0</ele>
      </trkpt>
      <trkpt lat="46.434248" lon="8.878644">
        <time>1970-01-01T00:00:00+00:00</time>
        <ele>1685.0</ele>
      </trkpt>
      <trkpt lat="46.434306" lon="8.878483">
        <time>1970-01-01T00:00:00+00:00</time>
        <ele>1686.0</ele>
      </trkpt>
      <trkpt lat="46.434328" lon="8.878498">
        <time>1970-01-01T00:00:00+00:00</time>
        <ele>1688.0</ele>
      </trkpt>
      <trkpt lat="46.434258" lon="8.878689">
        <time>1970-01-01T00:00:00+00:00</time>
        <ele>1686.0</ele>
      </trkpt>
      <trkpt lat="46.43423" lon="8.879178">
        <time>1970-01-01T00:00:00+00:00</time>
        <ele>1690.0</ele>
      </trkpt>
      <trkpt lat="46.434251" lon="8.879587">
        <time>1970-01-01T00:00:00+00:00</time>
        <ele>1697.0</ele>
      </trkpt>
      <trkpt lat="46.434225" lon="8.879837">
        <time>1970-01-01T00:00:00+00:00</time>
        <ele>1699.0</ele>
      </trkpt>
      <trkpt lat="46.434158" lon="8.879999">
        <time>1970-01-01T00:00:00+00:00</time>
        <ele>1695.0</ele>
      </trkpt>
      <trkpt lat="46.434135" lon="8.880271">
        <time>1970-01-01T00:00:00+00:00</time>
        <ele>1696.0</ele>
      </trkpt>
      <trkpt lat="46.434092" lon="8.88049">
        <time>1970-01-01T00:00:00+00:00</time>
        <ele>1693.0</ele>
      </trkpt>
      <trkpt lat="46.434105" lon="8.8805">
        <time>1970-01-01T00:00:00+00:00</time>
        <ele>1694.0</ele>
      </trkpt>
      <trkpt lat="46.434153" lon="8.880395">
        <time>1970-01-01T00:00:00+00:00</time>
        <ele>1698.0</ele>
      </trkpt>
      <trkpt lat="46.434205" lon="8.880364">
        <time>1970-01-01T00:00:00+00:00</time>
        <ele>1703.0</ele>
      </trkpt>
      <trkpt lat="46.434289" lon="8.879958">
        <time>1970-01-01T00:00:00+00:00</time>
        <ele>1707.0</ele>
      </trkpt>
      <trkpt lat="46.434433" lon="8.879666">
        <time>1970-01-01T00:00:00+00:00</time>
        <ele>1712.0</ele>
      </trkpt>
      <trkpt lat="46.434492" lon="8.879564">
        <time>1970-01-01T00:00:00+00:00</time>
        <ele>1713.0</ele>
      </trkpt>
      <trkpt lat="46.434712" lon="8.879384">
        <time>1970-01-01T00:00:00+00:00</time>
        <ele>1724.0</ele>
      </trkpt>
      <trkpt lat="46.434806" lon="8.87918">
        <time>1970-01-01T00:00:00+00:00</time>
        <ele>1726.0</ele>
      </trkpt>
      <trkpt lat="46.434965" lon="8.878971">
        <time>1970-01-01T00:00:00+00:00</time>
        <ele>1730.0</ele>
      </trkpt>
      <trkpt lat="46.434976" lon="8.878991">
        <time>1970-01-01T00:00:00+00:00</time>
        <ele>1731.0</ele>
      </trkpt>
      <trkpt lat="46.4349" lon="8.879129">
        <time>1970-01-01T00:00:00+00:00</time>
        <ele>1730.0</ele>
      </trkpt>
      <trkpt lat="46.434889" lon="8.879227">
        <time>1970-01-01T00:00:00+00:00</time>
        <ele>1730.0</ele>
      </trkpt>
      <trkpt lat="46.434969" lon="8.879191">
        <time>1970-01-01T00:00:00+00:00</time>
        <ele>1733.0</ele>
      </trkpt>
      <trkpt lat="46.435036" lon="8.87936">
        <time>1970-01-01T00:00:00+00:00</time>
        <ele>1737.0</ele>
      </trkpt>
      <trkpt lat="46.434987" lon="8.879625">
        <time>1970-01-01T00:00:00+00:00</time>
        <ele>1740.0</ele>
      </trkpt>
      <trkpt lat="46.434861" lon="8.879826">
        <time>1970-01-01T00:00:00+00:00</time>
        <ele>1739.0</ele>
      </trkpt>
      <trkpt lat="46.434766" lon="8.880231">
        <time>1970-01-01T00:00:00+00:00</time>
        <ele>1742.0</ele>
      </trkpt>
      <trkpt lat="46.434773" lon="8.880483">
        <time>1970-01-01T00:00:00+00:00</time>
        <ele>1746.0</ele>
      </trkpt>
      <trkpt lat="46.434716" lon="8.880963">
        <time>1970-01-01T00:00:00+00:00</time>
        <ele>1750.0</ele>
      </trkpt>
      <trkpt lat="46.434523" lon="8.881328">
        <time>1970-01-01T00:00:00+00:00</time>
        <ele>1744.0</ele>
      </trkpt>
      <trkpt lat="46.434562" lon="8.881642">
        <time>1970-01-01T00:00:00+00:00</time>
        <ele>1755.0</ele>
      </trkpt>
      <trkpt lat="46.434505" lon="8.881919">
        <time>1970-01-01T00:00:00+00:00</time>
        <ele>1759.0</ele>
      </trkpt>
      <trkpt lat="46.434407" lon="8.882168">
        <time>1970-01-01T00:00:00+00:00</time>
        <ele>1761.0</ele>
      </trkpt>
      <trkpt lat="46.434442" lon="8.882236">
        <time>1970-01-01T00:00:00+00:00</time>
        <ele>1765.0</ele>
      </trkpt>
      <trkpt lat="46.434417" lon="8.882434">
        <time>1970-01-01T00:00:00+00:00</time>
        <ele>1771.0</ele>
      </trkpt>
      <trkpt lat="46.434453" lon="8.8825">
        <time>1970-01-01T00:00:00+00:00</time>
        <ele>1776.0</ele>
      </trkpt>
      <trkpt lat="46.43383" lon="8.883125">
        <time>1970-01-01T00:00:00+00:00</time>
        <ele>1780.0</ele>
      </trkpt>
      <trkpt lat="46.43376" lon="8.883285">
        <time>1970-01-01T00:00:00+00:00</time>
        <ele>1784.0</ele>
      </trkpt>
      <trkpt lat="46.433412" lon="8.883668">
        <time>1970-01-01T00:00:00+00:00</time>
        <ele>1782.0</ele>
      </trkpt>
      <trkpt lat="46.433385" lon="8.883937">
        <time>1970-01-01T00:00:00+00:00</time>
        <ele>1791.0</ele>
      </trkpt>
      <trkpt lat="46.433305" lon="8.884129">
        <time>1970-01-01T00:00:00+00:00</time>
        <ele>1794.0</ele>
      </trkpt>
      <trkpt lat="46.433226" lon="8.884149">
        <time>1970-01-01T00:00:00+00:00</time>
        <ele>1793.0</ele>
      </trkpt>
      <trkpt lat="46.433128" lon="8.884356">
        <time>1970-01-01T00:00:00+00:00</time>
        <ele>1803.0</ele>
      </trkpt>
      <trkpt lat="46.433439" lon="8.884305">
        <time>1970-01-01T00:00:00+00:00</time>
        <ele>1809.0</ele>
      </trkpt>
      <trkpt lat="46.433546" lon="8.884013">
        <time>1970-01-01T00:00:00+00:00</time>
        <ele>1799.0</ele>
      </trkpt>
      <trkpt lat="46.433694" lon="8.883868">
        <time>1970-01-01T00:00:00+00:00</time>
        <ele>1800.0</ele>
      </trkpt>
      <trkpt lat="46.433806" lon="8.883826">
        <time>1970-01-01T00:00:00+00:00</time>
        <ele>1805.0</ele>
      </trkpt>
      <trkpt lat="46.433975" lon="8.88386">
        <time>1970-01-01T00:00:00+00:00</time>
        <ele>1816.0</ele>
      </trkpt>
      <trkpt lat="46.434124" lon="8.88371">
        <time>1970-01-01T00:00:00+00:00</time>
        <ele>1819.0</ele>
      </trkpt>
      <trkpt lat="46.434534" lon="8.883633">
        <time>1970-01-01T00:00:00+00:00</time>
        <ele>1838.0</ele>
      </trkpt>
      <trkpt lat="46.434951" lon="8.883265">
        <time>1970-01-01T00:00:00+00:00</time>
        <ele>1845.0</ele>
      </trkpt>
      <trkpt lat="46.435502" lon="8.882727">
        <time>1970-01-01T00:00:00+00:00</time>
        <ele>1833.0</ele>
      </trkpt>
      <trkpt lat="46.435999" lon="8.882332">
        <time>1970-01-01T00:00:00+00:00</time>
        <ele>1841.0</ele>
      </trkpt>
      <trkpt lat="46.436142" lon="8.882019">
        <time>1970-01-01T00:00:00+00:00</time>
        <ele>1841.0</ele>
      </trkpt>
      <trkpt lat="46.436251" lon="8.881982">
        <time>1970-01-01T00:00:00+00:00</time>
        <ele>1843.0</ele>
      </trkpt>
      <trkpt lat="46.436417" lon="8.881644">
        <time>1970-01-01T00:00:00+00:00</time>
        <ele>1843.0</ele>
      </trkpt>
      <trkpt lat="46.436349" lon="8.882197">
        <time>1970-01-01T00:00:00+00:00</time>
        <ele>1853.0</ele>
      </trkpt>
      <trkpt lat="46.436186" lon="8.882755">
        <time>1970-01-01T00:00:00+00:00</time>
        <ele>1861.0</ele>
      </trkpt>
      <trkpt lat="46.435999" lon="8.883167">
        <time>1970-01-01T00:00:00+00:00</time>
        <ele>1868.0</ele>
      </trkpt>
      <trkpt lat="46.435802" lon="8.883734">
        <time>1970-01-01T00:00:00+00:00</time>
        <ele>1883.0</ele>
      </trkpt>
      <trkpt lat="46.435586" lon="8.884028">
        <time>1970-01-01T00:00:00+00:00</time>
        <ele>1893.0</ele>
      </trkpt>
      <trkpt lat="46.435339" lon="8.884186">
        <time>1970-01-01T00:00:00+00:00</time>
        <ele>1897.0</ele>
      </trkpt>
      <trkpt lat="46.435171" lon="8.884487">
        <time>1970-01-01T00:00:00+00:00</time>
        <ele>1907.0</ele>
      </trkpt>
      <trkpt lat="46.434948" lon="8.884722">
        <time>1970-01-01T00:00:00+00:00</time>
        <ele>1908.0</ele>
      </trkpt>
      <trkpt lat="46.434869" lon="8.884727">
        <time>1970-01-01T00:00:00+00:00</time>
        <ele>1902.0</ele>
      </trkpt>
      <trkpt lat="46.434716" lon="8.885055">
        <time>1970-01-01T00:00:00+00:00</time>
        <ele>1899.0</ele>
      </trkpt>
      <trkpt lat="46.43474" lon="8.885087">
        <time>1970-01-01T00:00:00+00:00</time>
        <ele>1901.0</ele>
      </trkpt>
      <trkpt lat="46.435006" lon="8.884835">
        <time>1970-01-01T00:00:00+00:00</time>
        <ele>1913.0</ele>
      </trkpt>
      <trkpt lat="46.435206" lon="8.884731">
        <time>1970-01-01T00:00:00+00:00</time>
        <ele>1920.0</ele>
      </trkpt>
      <trkpt lat="46.435419" lon="8.88483">
        <time>1970-01-01T00:00:00+00:00</time>
        <ele>1931.0</ele>
      </trkpt>
      <trkpt lat="46.43557" lon="8.884628">
        <time>1970-01-01T00:00:00+00:00</time>
        <ele>1927.0</ele>
      </trkpt>
      <trkpt lat="46.436426" lon="8.884186">
        <time>1970-01-01T00:00:00+00:00</time>
        <ele>1926.0</ele>
      </trkpt>
      <trkpt lat="46.436866" lon="8.883574">
        <time>1970-01-01T00:00:00+00:00</time>
        <ele>1931.0</ele>
      </trkpt>
      <trkpt lat="46.437086" lon="8.883414">
        <time>1970-01-01T00:00:00+00:00</time>
        <ele>1940.0</ele>
      </trkpt>
      <trkpt lat="46.437326" lon="8.883406">
        <time>1970-01-01T00:00:00+00:00</time>
        <ele>1952.0</ele>
      </trkpt>
      <trkpt lat="46.43737" lon="8.883305">
        <time>1970-01-01T00:00:00+00:00</time>
        <ele>1950.0</ele>
      </trkpt>
      <trkpt lat="46.43739" lon="8.883335">
        <time>1970-01-01T00:00:00+00:00</time>
        <ele>1952.0</ele>
      </trkpt>
      <trkpt lat="46.437329" lon="8.883448">
        <time>1970-01-01T00:00:00+00:00</time>
        <ele>1953.0</ele>
      </trkpt>
      <trkpt lat="46.437111" lon="8.883589">
        <time>1970-01-01T00:00:00+00:00</time>
        <ele>1948.0</ele>
      </trkpt>
      <trkpt lat="46.437021" lon="8.883776">
        <time>1970-01-01T00:00:00+00:00</time>
        <ele>1949.0</ele>
      </trkpt>
      <trkpt lat="46.436939" lon="8.884059">
        <time>1970-01-01T00:00:00+00:00</time>
        <ele>1952.0</ele>
      </trkpt>
      <trkpt lat="46.436783" lon="8.884363">
        <time>1970-01-01T00:00:00+00:00</time>
        <ele>1953.0</ele>
      </trkpt>
      <trkpt lat="46.436554" lon="8.884663">
        <time>1970-01-01T00:00:00+00:00</time>
        <ele>1957.0</ele>
      </trkpt>
      <trkpt lat="46.436614" lon="8.885475">
        <time>1970-01-01T00:00:00+00:00</time>
        <ele>1978.0</ele>
      </trkpt>
      <trkpt lat="46.436599" lon="8.885706">
        <time>1970-01-01T00:00:00+00:00</time>
        <ele>1984.0</ele>
      </trkpt>
      <trkpt lat="46.436476" lon="8.885876">
        <time>1970-01-01T00:00:00+00:00</time>
        <ele>1988.0</ele>
      </trkpt>
      <trkpt lat="46.436283" lon="8.88592">
        <time>1970-01-01T00:00:00+00:00</time>
        <ele>1985.0</ele>
      </trkpt>
      <trkpt lat="46.436199" lon="8.886215">
        <time>1970-01-01T00:00:00+00:00</time>
        <ele>1994.0</ele>
      </trkpt>
      <trkpt lat="46.436085" lon="8.886395">
        <time>1970-01-01T00:00:00+00:00</time>
        <ele>1997.0</ele>
      </trkpt>
      <trkpt lat="46.435899" lon="8.886452">
        <time>1970-01-01T00:00:00+00:00</time>
        <ele>1992.0</ele>
      </trkpt>
      <trkpt lat="46.435826" lon="8.886529">
        <time>1970-01-01T00:00:00+00:00</time>
        <ele>1990.0</ele>
      </trkpt>
      <trkpt lat="46.435692" lon="8.886598">
        <time>1970-01-01T00:00:00+00:00</time>
        <ele>1987.0</ele>
      </trkpt>
      <trkpt lat="46.435501" lon="8.886732">
        <time>1970-01-01T00:00:00+00:00</time>
        <ele>1986.0</ele>
      </trkpt>
      <trkpt lat="46.434854" lon="8.887215">
        <time>1970-01-01T00:00:00+00:00</time>
        <ele>1977.0</ele>
      </trkpt>
      <trkpt lat="46.43474" lon="8.887416">
        <time>1970-01-01T00:00:00+00:00</time>
        <ele>1974.0</ele>
      </trkpt>
      <trkpt lat="46.434586" lon="8.887821">
        <time>1970-01-01T00:00:00+00:00</time>
        <ele>1977.0</ele>
      </trkpt>
      <trkpt lat="46.434451" lon="8.887939">
        <time>1970-01-01T00:00:00+00:00</time>
        <ele>1976.0</ele>
      </trkpt>
      <trkpt lat="46.43439" lon="8.888098">
        <time>1970-01-01T00:00:00+00:00</time>
        <ele>1977.0</ele>
      </trkpt>
      <trkpt lat="46.434294" lon="8.888264">
        <time>1970-01-01T00:00:00+00:00</time>
        <ele>1977.0</ele>
      </trkpt>
      <trkpt lat="46.434009" lon="8.888379">
        <time>1970-01-01T00:00:00+00:00</time>
        <ele>1970.0</ele>
      </trkpt>
      <trkpt lat="46.433715" lon="8.888609">
        <time>1970-01-01T00:00:00+00:00</time>
        <ele>1970.0</ele>
      </trkpt>
      <trkpt lat="46.433715" lon="8.888609">
        <time>1970-01-01T00:00:00+00:00</time>
        <ele>1970.0</ele>
      </trkpt>
      <trkpt lat="46.434009" lon="8.888379">
        <time>1970-01-01T00:00:00+00:00</time>
        <ele>1970.0</ele>
      </trkpt>
      <trkpt lat="46.434294" lon="8.888264">
        <time>1970-01-01T00:00:00+00:00</time>
        <ele>1977.0</ele>
      </trkpt>
      <trkpt lat="46.43439" lon="8.888098">
        <time>1970-01-01T00:00:00+00:00</time>
        <ele>1977.0</ele>
      </trkpt>
      <trkpt lat="46.434451" lon="8.887939">
        <time>1970-01-01T00:00:00+00:00</time>
        <ele>1976.0</ele>
      </trkpt>
      <trkpt lat="46.434586" lon="8.887821">
        <time>1970-01-01T00:00:00+00:00</time>
        <ele>1977.0</ele>
      </trkpt>
      <trkpt lat="46.43474" lon="8.887416">
        <time>1970-01-01T00:00:00+00:00</time>
        <ele>1974.0</ele>
      </trkpt>
      <trkpt lat="46.434854" lon="8.887215">
        <time>1970-01-01T00:00:00+00:00</time>
        <ele>1977.0</ele>
      </trkpt>
      <trkpt lat="46.435501" lon="8.886732">
        <time>1970-01-01T00:00:00+00:00</time>
        <ele>1986.0</ele>
      </trkpt>
      <trkpt lat="46.435692" lon="8.886598">
        <time>1970-01-01T00:00:00+00:00</time>
        <ele>1987.0</ele>
      </trkpt>
      <trkpt lat="46.435826" lon="8.886529">
        <time>1970-01-01T00:00:00+00:00</time>
        <ele>1990.0</ele>
      </trkpt>
      <trkpt lat="46.435899" lon="8.886452">
        <time>1970-01-01T00:00:00+00:00</time>
        <ele>1992.0</ele>
      </trkpt>
      <trkpt lat="46.436085" lon="8.886395">
        <time>1970-01-01T00:00:00+00:00</time>
        <ele>1997.0</ele>
      </trkpt>
      <trkpt lat="46.436199" lon="8.886215">
        <time>1970-01-01T00:00:00+00:00</time>
        <ele>1994.0</ele>
      </trkpt>
      <trkpt lat="46.436283" lon="8.88592">
        <time>1970-01-01T00:00:00+00:00</time>
        <ele>1985.0</ele>
      </trkpt>
      <trkpt lat="46.436476" lon="8.885876">
        <time>1970-01-01T00:00:00+00:00</time>
        <ele>1988.0</ele>
      </trkpt>
      <trkpt lat="46.436599" lon="8.885706">
        <time>1970-01-01T00:00:00+00:00</time>
        <ele>1984.0</ele>
      </trkpt>
      <trkpt lat="46.436614" lon="8.885475">
        <time>1970-01-01T00:00:00+00:00</time>
        <ele>1978.0</ele>
      </trkpt>
      <trkpt lat="46.436554" lon="8.884663">
        <time>1970-01-01T00:00:00+00:00</time>
        <ele>1957.0</ele>
      </trkpt>
      <trkpt lat="46.436783" lon="8.884363">
        <time>1970-01-01T00:00:00+00:00</time>
        <ele>1953.0</ele>
      </trkpt>
      <trkpt lat="46.436939" lon="8.884059">
        <time>1970-01-01T00:00:00+00:00</time>
        <ele>1952.0</ele>
      </trkpt>
      <trkpt lat="46.437021" lon="8.883776">
        <time>1970-01-01T00:00:00+00:00</time>
        <ele>1949.0</ele>
      </trkpt>
      <trkpt lat="46.437111" lon="8.883589">
        <time>1970-01-01T00:00:00+00:00</time>
        <ele>1948.0</ele>
      </trkpt>
      <trkpt lat="46.437329" lon="8.883448">
        <time>1970-01-01T00:00:00+00:00</time>
        <ele>1953.0</ele>
      </trkpt>
      <trkpt lat="46.43739" lon="8.883335">
        <time>1970-01-01T00:00:00+00:00</time>
        <ele>1952.0</ele>
      </trkpt>
      <trkpt lat="46.43737" lon="8.883305">
        <time>1970-01-01T00:00:00+00:00</time>
        <ele>1950.0</ele>
      </trkpt>
      <trkpt lat="46.437326" lon="8.883406">
        <time>1970-01-01T00:00:00+00:00</time>
        <ele>1952.0</ele>
      </trkpt>
      <trkpt lat="46.437086" lon="8.883414">
        <time>1970-01-01T00:00:00+00:00</time>
        <ele>1940.0</ele>
      </trkpt>
      <trkpt lat="46.436866" lon="8.883574">
        <time>1970-01-01T00:00:00+00:00</time>
        <ele>1931.0</ele>
      </trkpt>
      <trkpt lat="46.436426" lon="8.884186">
        <time>1970-01-01T00:00:00+00:00</time>
        <ele>1926.0</ele>
      </trkpt>
      <trkpt lat="46.43557" lon="8.884628">
        <time>1970-01-01T00:00:00+00:00</time>
        <ele>1927.0</ele>
      </trkpt>
      <trkpt lat="46.435419" lon="8.88483">
        <time>1970-01-01T00:00:00+00:00</time>
        <ele>1931.0</ele>
      </trkpt>
      <trkpt lat="46.435206" lon="8.884731">
        <time>1970-01-01T00:00:00+00:00</time>
        <ele>1920.0</ele>
      </trkpt>
      <trkpt lat="46.435006" lon="8.884835">
        <time>1970-01-01T00:00:00+00:00</time>
        <ele>1913.0</ele>
      </trkpt>
      <trkpt lat="46.43474" lon="8.885087">
        <time>1970-01-01T00:00:00+00:00</time>
        <ele>1901.0</ele>
      </trkpt>
      <trkpt lat="46.434716" lon="8.885055">
        <time>1970-01-01T00:00:00+00:00</time>
        <ele>1899.0</ele>
      </trkpt>
      <trkpt lat="46.434869" lon="8.884727">
        <time>1970-01-01T00:00:00+00:00</time>
        <ele>1902.0</ele>
      </trkpt>
      <trkpt lat="46.434948" lon="8.884722">
        <time>1970-01-01T00:00:00+00:00</time>
        <ele>1908.0</ele>
      </trkpt>
      <trkpt lat="46.435171" lon="8.884487">
        <time>1970-01-01T00:00:00+00:00</time>
        <ele>1907.0</ele>
      </trkpt>
      <trkpt lat="46.435339" lon="8.884186">
        <time>1970-01-01T00:00:00+00:00</time>
        <ele>1897.0</ele>
      </trkpt>
      <trkpt lat="46.435586" lon="8.884028">
        <time>1970-01-01T00:00:00+00:00</time>
        <ele>1893.0</ele>
      </trkpt>
      <trkpt lat="46.435802" lon="8.883734">
        <time>1970-01-01T00:00:00+00:00</time>
        <ele>1883.0</ele>
      </trkpt>
      <trkpt lat="46.435999" lon="8.883167">
        <time>1970-01-01T00:00:00+00:00</time>
        <ele>1868.0</ele>
      </trkpt>
      <trkpt lat="46.436186" lon="8.882755">
        <time>1970-01-01T00:00:00+00:00</time>
        <ele>1861.0</ele>
      </trkpt>
      <trkpt lat="46.436349" lon="8.882197">
        <time>1970-01-01T00:00:00+00:00</time>
        <ele>1853.0</ele>
      </trkpt>
      <trkpt lat="46.436417" lon="8.881644">
        <time>1970-01-01T00:00:00+00:00</time>
        <ele>1843.0</ele>
      </trkpt>
      <trkpt lat="46.436251" lon="8.881982">
        <time>1970-01-01T00:00:00+00:00</time>
        <ele>1843.0</ele>
      </trkpt>
      <trkpt lat="46.436142" lon="8.882019">
        <time>1970-01-01T00:00:00+00:00</time>
        <ele>1841.0</ele>
      </trkpt>
      <trkpt lat="46.435999" lon="8.882332">
        <time>1970-01-01T00:00:00+00:00</time>
        <ele>1841.0</ele>
      </trkpt>
      <trkpt lat="46.435502" lon="8.882727">
        <time>1970-01-01T00:00:00+00:00</time>
        <ele>1833.0</ele>
      </trkpt>
      <trkpt lat="46.434951" lon="8.883265">
        <time>1970-01-01T00:00:00+00:00</time>
        <ele>1845.0</ele>
      </trkpt>
      <trkpt lat="46.434534" lon="8.883633">
        <time>1970-01-01T00:00:00+00:00</time>
        <ele>1838.0</ele>
      </trkpt>
      <trkpt lat="46.434124" lon="8.88371">
        <time>1970-01-01T00:00:00+00:00</time>
        <ele>1819.0</ele>
      </trkpt>
      <trkpt lat="46.433975" lon="8.88386">
        <time>1970-01-01T00:00:00+00:00</time>
        <ele>1816.0</ele>
      </trkpt>
      <trkpt lat="46.433806" lon="8.883826">
        <time>1970-01-01T00:00:00+00:00</time>
        <ele>1805.0</ele>
      </trkpt>
      <trkpt lat="46.433694" lon="8.883868">
        <time>1970-01-01T00:00:00+00:00</time>
        <ele>1800.0</ele>
      </trkpt>
      <trkpt lat="46.433546" lon="8.884013">
        <time>1970-01-01T00:00:00+00:00</time>
        <ele>1799.0</ele>
      </trkpt>
      <trkpt lat="46.433439" lon="8.884305">
        <time>1970-01-01T00:00:00+00:00</time>
        <ele>1809.0</ele>
      </trkpt>
      <trkpt lat="46.433128" lon="8.884356">
        <time>1970-01-01T00:00:00+00:00</time>
        <ele>1803.0</ele>
      </trkpt>
      <trkpt lat="46.433226" lon="8.884149">
        <time>1970-01-01T00:00:00+00:00</time>
        <ele>1793.0</ele>
      </trkpt>
      <trkpt lat="46.433305" lon="8.884129">
        <time>1970-01-01T00:00:00+00:00</time>
        <ele>1794.0</ele>
      </trkpt>
      <trkpt lat="46.433385" lon="8.883937">
        <time>1970-01-01T00:00:00+00:00</time>
        <ele>1791.0</ele>
      </trkpt>
      <trkpt lat="46.433412" lon="8.883668">
        <time>1970-01-01T00:00:00+00:00</time>
        <ele>1782.0</ele>
      </trkpt>
      <trkpt lat="46.43376" lon="8.883285">
        <time>1970-01-01T00:00:00+00:00</time>
        <ele>1784.0</ele>
      </trkpt>
      <trkpt lat="46.43383" lon="8.883125">
        <time>1970-01-01T00:00:00+00:00</time>
        <ele>1780.0</ele>
      </trkpt>
      <trkpt lat="46.434453" lon="8.8825">
        <time>1970-01-01T00:00:00+00:00</time>
        <ele>1776.0</ele>
      </trkpt>
      <trkpt lat="46.434417" lon="8.882434">
        <time>1970-01-01T00:00:00+00:00</time>
        <ele>1771.0</ele>
      </trkpt>
      <trkpt lat="46.434442" lon="8.882236">
        <time>1970-01-01T00:00:00+00:00</time>
        <ele>1765.0</ele>
      </trkpt>
      <trkpt lat="46.434407" lon="8.882168">
        <time>1970-01-01T00:00:00+00:00</time>
        <ele>1761.0</ele>
      </trkpt>
      <trkpt lat="46.434505" lon="8.881919">
        <time>1970-01-01T00:00:00+00:00</time>
        <ele>1759.0</ele>
      </trkpt>
      <trkpt lat="46.434562" lon="8.881642">
        <time>1970-01-01T00:00:00+00:00</time>
        <ele>1755.0</ele>
      </trkpt>
      <trkpt lat="46.434523" lon="8.881328">
        <time>1970-01-01T00:00:00+00:00</time>
        <ele>1744.0</ele>
      </trkpt>
      <trkpt lat="46.434716" lon="8.880963">
        <time>1970-01-01T00:00:00+00:00</time>
        <ele>1750.0</ele>
      </trkpt>
      <trkpt lat="46.434773" lon="8.880483">
        <time>1970-01-01T00:00:00+00:00</time>
        <ele>1746.0</ele>
      </trkpt>
      <trkpt lat="46.434766" lon="8.880231">
        <time>1970-01-01T00:00:00+00:00</time>
        <ele>1742.0</ele>
      </trkpt>
      <trkpt lat="46.434861" lon="8.879826">
        <time>1970-01-01T00:00:00+00:00</time>
        <ele>1739.0</ele>
      </trkpt>
      <trkpt lat="46.434987" lon="8.879625">
        <time>1970-01-01T00:00:00+00:00</time>
        <ele>1740.0</ele>
      </trkpt>
      <trkpt lat="46.435036" lon="8.87936">
        <time>1970-01-01T00:00:00+00:00</time>
        <ele>1737.0</ele>
      </trkpt>
      <trkpt lat="46.434969" lon="8.879191">
        <time>1970-01-01T00:00:00+00:00</time>
        <ele>1733.0</ele>
      </trkpt>
      <trkpt lat="46.434889" lon="8.879227">
        <time>1970-01-01T00:00:00+00:00</time>
        <ele>1730.0</ele>
      </trkpt>
      <trkpt lat="46.4349" lon="8.879129">
        <time>1970-01-01T00:00:00+00:00</time>
        <ele>1730.0</ele>
      </trkpt>
      <trkpt lat="46.434976" lon="8.878991">
        <time>1970-01-01T00:00:00+00:00</time>
        <ele>1731.0</ele>
      </trkpt>
      <trkpt lat="46.434965" lon="8.878971">
        <time>1970-01-01T00:00:00+00:00</time>
        <ele>1730.0</ele>
      </trkpt>
      <trkpt lat="46.434806" lon="8.87918">
        <time>1970-01-01T00:00:00+00:00</time>
        <ele>1726.0</ele>
      </trkpt>
      <trkpt lat="46.434712" lon="8.879384">
        <time>1970-01-01T00:00:00+00:00</time>
        <ele>1724.0</ele>
      </trkpt>
      <trkpt lat="46.434492" lon="8.879564">
        <time>1970-01-01T00:00:00+00:00</time>
        <ele>1713.0</ele>
      </trkpt>
      <trkpt lat="46.434433" lon="8.879666">
        <time>1970-01-01T00:00:00+00:00</time>
        <ele>1712.0</ele>
      </trkpt>
      <trkpt lat="46.434289" lon="8.879958">
        <time>1970-01-01T00:00:00+00:00</time>
        <ele>1707.0</ele>
      </trkpt>
      <trkpt lat="46.434205" lon="8.880364">
        <time>1970-01-01T00:00:00+00:00</time>
        <ele>1703.0</ele>
      </trkpt>
      <trkpt lat="46.434153" lon="8.880395">
        <time>1970-01-01T00:00:00+00:00</time>
        <ele>1698.0</ele>
      </trkpt>
      <trkpt lat="46.434105" lon="8.8805">
        <time>1970-01-01T00:00:00+00:00</time>
        <ele>1694.0</ele>
      </trkpt>
      <trkpt lat="46.434092" lon="8.88049">
        <time>1970-01-01T00:00:00+00:00</time>
        <ele>1693.0</ele>
      </trkpt>
      <trkpt lat="46.434135" lon="8.880271">
        <time>1970-01-01T00:00:00+00:00</time>
        <ele>1696.0</ele>
      </trkpt>
      <trkpt lat="46.434158" lon="8.879999">
        <time>1970-01-01T00:00:00+00:00</time>
        <ele>1695.0</ele>
      </trkpt>
      <trkpt lat="46.434225" lon="8.879837">
        <time>1970-01-01T00:00:00+00:00</time>
        <ele>1699.0</ele>
      </trkpt>
      <trkpt lat="46.434251" lon="8.879587">
        <time>1970-01-01T00:00:00+00:00</time>
        <ele>1697.0</ele>
      </trkpt>
      <trkpt lat="46.43423" lon="8.879178">
        <time>1970-01-01T00:00:00+00:00</time>
        <ele>1690.0</ele>
      </trkpt>
      <trkpt lat="46.434258" lon="8.878689">
        <time>1970-01-01T00:00:00+00:00</time>
        <ele>1686.0</ele>
      </trkpt>
      <trkpt lat="46.434328" lon="8.878498">
        <time>1970-01-01T00:00:00+00:00</time>
        <ele>1688.0</ele>
      </trkpt>
      <trkpt lat="46.434306" lon="8.878483">
        <time>1970-01-01T00:00:00+00:00</time>
        <ele>1686.0</ele>
      </trkpt>
      <trkpt lat="46.434248" lon="8.878644">
        <time>1970-01-01T00:00:00+00:00</time>
        <ele>1685.0</ele>
      </trkpt>
      <trkpt lat="46.434205" lon="8.878867">
        <time>1970-01-01T00:00:00+00:00</time>
        <ele>1684.0</ele>
      </trkpt>
      <trkpt lat="46.434134" lon="8.878928">
        <time>1970-01-01T00:00:00+00:00</time>
        <ele>1679.0</ele>
      </trkpt>
      <trkpt lat="46.434036" lon="8.879394">
        <time>1970-01-01T00:00:00+00:00</time>
        <ele>1675.0</ele>
      </trkpt>
      <trkpt lat="46.433858" lon="8.879437">
        <time>1970-01-01T00:00:00+00:00</time>
        <ele>1659.0</ele>
      </trkpt>
      <trkpt lat="46.433835" lon="8.879638">
        <time>1970-01-01T00:00:00+00:00</time>
        <ele>1658.0</ele>
      </trkpt>
      <trkpt lat="46.43386" lon="8.879813">
        <time>1970-01-01T00:00:00+00:00</time>
        <ele>1662.0</ele>
      </trkpt>
      <trkpt lat="46.433808" lon="8.87992">
        <time>1970-01-01T00:00:00+00:00</time>
        <ele>1657.0</ele>
      </trkpt>
      <trkpt lat="46.433779" lon="8.880178">
        <time>1970-01-01T00:00:00+00:00</time>
        <ele>1656.0</ele>
      </trkpt>
      <trkpt lat="46.433834" lon="8.880294">
        <time>1970-01-01T00:00:00+00:00</time>
        <ele>1663.0</ele>
      </trkpt>
      <trkpt lat="46.433751" lon="8.88041">
        <time>1970-01-01T00:00:00+00:00</time>
        <ele>1655.0</ele>
      </trkpt>
      <trkpt lat="46.43369" lon="8.88056">
        <time>1970-01-01T00:00:00+00:00</time>
        <ele>1651.0</ele>
      </trkpt>
      <trkpt lat="46.433685" lon="8.880687">
        <time>1970-01-01T00:00:00+00:00</time>
        <ele>1653.0</ele>
      </trkpt>
      <trkpt lat="46.433646" lon="8.88073">
        <time>1970-01-01T00:00:00+00:00</time>
        <ele>1651.0</ele>
      </trkpt>
      <trkpt lat="46.43361" lon="8.880846">
        <time>1970-01-01T00:00:00+00:00</time>
        <ele>1652.0</ele>
      </trkpt>
      <trkpt lat="46.433607" lon="8.880948">
        <time>1970-01-01T00:00:00+00:00</time>
        <ele>1654.0</ele>
      </trkpt>
      <trkpt lat="46.433579" lon="8.881076">
        <time>1970-01-01T00:00:00+00:00</time>
        <ele>1656.0</ele>
      </trkpt>
      <trkpt lat="46.433497" lon="8.881128">
        <time>1970-01-01T00:00:00+00:00</time>
        <ele>1653.0</ele>
      </trkpt>
      <trkpt lat="46.433443" lon="8.881222">
        <time>1970-01-01T00:00:00+00:00</time>
        <ele>1653.0</ele>
      </trkpt>
      <trkpt lat="46.433381" lon="8.881213">
        <time>1970-01-01T00:00:00+00:00</time>
        <ele>1649.0</ele>
      </trkpt>
      <trkpt lat="46.433313" lon="8.881267">
        <time>1970-01-01T00:00:00+00:00</time>
        <ele>1648.0</ele>
      </trkpt>
      <trkpt lat="46.433271" lon="8.881244">
        <time>1970-01-01T00:00:00+00:00</time>
        <ele>1644.0</ele>
      </trkpt>
      <trkpt lat="46.433165" lon="8.881233">
        <time>1970-01-01T00:00:00+00:00</time>
        <ele>1639.0</ele>
      </trkpt>
      <trkpt lat="46.433013" lon="8.881321">
        <time>1970-01-01T00:00:00+00:00</time>
        <ele>1637.0</ele>
      </trkpt>
      <trkpt lat="46.432927" lon="8.881416">
        <time>1970-01-01T00:00:00+00:00</time>
        <ele>1639.0</ele>
      </trkpt>
      <trkpt lat="46.432576" lon="8.881505">
        <time>1970-01-01T00:00:00+00:00</time>
        <ele>1632.0</ele>
      </trkpt>
      <trkpt lat="46.43244" lon="8.88159">
        <time>1970-01-01T00:00:00+00:00</time>
        <ele>1633.0</ele>
      </trkpt>
      <trkpt lat="46.43246" lon="8.881714">
        <time>1970-01-01T00:00:00+00:00</time>
        <ele>1641.0</ele>
      </trkpt>
      <trkpt lat="46.432395" lon="8.881738">
        <time>1970-01-01T00:00:00+00:00</time>
        <ele>1640.0</ele>
      </trkpt>
      <trkpt lat="46.432204" lon="8.881899">
        <time>1970-01-01T00:00:00+00:00</time>
        <ele>1640.0</ele>
      </trkpt>
      <trkpt lat="46.432201" lon="8.881789">
        <time>1970-01-01T00:00:00+00:00</time>
        <ele>1634.0</ele>
      </trkpt>
      <trkpt lat="46.432235" lon="8.881727">
        <time>1970-01-01T00:00:00+00:00</time>
        <ele>1632.0</ele>
      </trkpt>
      <trkpt lat="46.43223" lon="8.881663">
        <time>1970-01-01T00:00:00+00:00</time>
        <ele>1627.0</ele>
      </trkpt>
      <trkpt lat="46.432347" lon="8.881521">
        <time>1970-01-01T00:00:00+00:00</time>
        <ele>1625.0</ele>
      </trkpt>
      <trkpt lat="46.43234" lon="8.881427">
        <time>1970-01-01T00:00:00+00:00</time>
        <ele>1619.0</ele>
      </trkpt>
      <trkpt lat="46.432384" lon="8.881378">
        <time>1970-01-01T00:00:00+00:00</time>
        <ele>1620.0</ele>
      </trkpt>
      <trkpt lat="46.432403" lon="8.881286">
        <time>1970-01-01T00:00:00+00:00</time>
        <ele>1616.0</ele>
      </trkpt>
      <trkpt lat="46.432573" lon="8.881113">
        <time>1970-01-01T00:00:00+00:00</time>
        <ele>1616.0</ele>
      </trkpt>
      <trkpt lat="46.432564" lon="8.881095">
        <time>1970-01-01T00:00:00+00:00</time>
        <ele>1615.0</ele>
      </trkpt>
      <trkpt lat="46.432402" lon="8.881183">
        <time>1970-01-01T00:00:00+00:00</time>
        <ele>1612.0</ele>
      </trkpt>
      <trkpt lat="46.432312" lon="8.88128">
        <time>1970-01-01T00:00:00+00:00</time>
        <ele>1610.0</ele>
      </trkpt>
      <trkpt lat="46.432056" lon="8.881468">
        <time>1970-01-01T00:00:00+00:00</time>
        <ele>1604.0</ele>
      </trkpt>
      <trkpt lat="46.431892" lon="8.881676">
        <time>1970-01-01T00:00:00+00:00</time>
        <ele>1615.0</ele>
      </trkpt>
      <trkpt lat="46.431781" lon="8.881743">
        <time>1970-01-01T00:00:00+00:00</time>
        <ele>1620.0</ele>
      </trkpt>
      <trkpt lat="46.431893" lon="8.881631">
        <time>1970-01-01T00:00:00+00:00</time>
        <ele>1612.0</ele>
      </trkpt>
      <trkpt lat="46.431985" lon="8.881379">
        <time>1970-01-01T00:00:00+00:00</time>
        <ele>1596.0</ele>
      </trkpt>
      <trkpt lat="46.432019" lon="8.881228">
        <time>1970-01-01T00:00:00+00:00</time>
        <ele>1590.0</ele>
      </trkpt>
      <trkpt lat="46.432213" lon="8.881002">
        <time>1970-01-01T00:00:00+00:00</time>
        <ele>1597.0</ele>
      </trkpt>
      <trkpt lat="46.432312" lon="8.880859">
        <time>1970-01-01T00:00:00+00:00</time>
        <ele>1597.0</ele>
      </trkpt>
      <trkpt lat="46.432448" lon="8.880604">
        <time>1970-01-01T00:00:00+00:00</time>
        <ele>1591.0</ele>
      </trkpt>
      <trkpt lat="46.432576" lon="8.880494">
        <time>1970-01-01T00:00:00+00:00</time>
        <ele>1591.0</ele>
      </trkpt>
      <trkpt lat="46.432676" lon="8.880248">
        <time>1970-01-01T00:00:00+00:00</time>
        <ele>1585.0</ele>
      </trkpt>
      <trkpt lat="46.432721" lon="8.880234">
        <time>1970-01-01T00:00:00+00:00</time>
        <ele>1587.0</ele>
      </trkpt>
      <trkpt lat="46.432746" lon="8.880269">
        <time>1970-01-01T00:00:00+00:00</time>
        <ele>1589.0</ele>
      </trkpt>
      <trkpt lat="46.43286" lon="8.880316">
        <time>1970-01-01T00:00:00+00:00</time>
        <ele>1595.0</ele>
      </trkpt>
      <trkpt lat="46.432938" lon="8.880213">
        <time>1970-01-01T00:00:00+00:00</time>
        <ele>1595.0</ele>
      </trkpt>
      <trkpt lat="46.432955" lon="8.880124">
        <time>1970-01-01T00:00:00+00:00</time>
        <ele>1594.0</ele>
      </trkpt>
      <trkpt lat="46.43295" lon="8.879957">
        <time>1970-01-01T00:00:00+00:00</time>
        <ele>1590.0</ele>
      </trkpt>
      <trkpt lat="46.43285" lon="8.879732">
        <time>1970-01-01T00:00:00+00:00</time>
        <ele>1580.0</ele>
      </trkpt>
      <trkpt lat="46.432766" lon="8.879588">
        <time>1970-01-01T00:00:00+00:00</time>
        <ele>1572.0</ele>
      </trkpt>
      <trkpt lat="46.432716" lon="8.879401">
        <time>1970-01-01T00:00:00+00:00</time>
        <ele>1567.0</ele>
      </trkpt>
      <trkpt lat="46.432742" lon="8.878942">
        <time>1970-01-01T00:00:00+00:00</time>
        <ele>1567.0</ele>
      </trkpt>
      <trkpt lat="46.432855" lon="8.878352">
        <time>1970-01-01T00:00:00+00:00</time>
        <ele>1569.0</ele>
      </trkpt>
      <trkpt lat="46.432872" lon="8.878116">
        <time>1970-01-01T00:00:00+00:00</time>
        <ele>1565.0</ele>
      </trkpt>
      <trkpt lat="46.43282" lon="8.877655">
        <time>1970-01-01T00:00:00+00:00</time>
        <ele>1558.0</ele>
      </trkpt>
      <trkpt lat="46.432711" lon="8.877274">
        <time>1970-01-01T00:00:00+00:00</time>
        <ele>1549.0</ele>
      </trkpt>
      <trkpt lat="46.432711" lon="8.877038">
        <time>1970-01-01T00:00:00+00:00</time>
        <ele>1549.0</ele>
      </trkpt>
      <trkpt lat="46.432631" lon="8.876733">
        <time>1970-01-01T00:00:00+00:00</time>
        <ele>1544.0</ele>
      </trkpt>
      <trkpt lat="46.432612" lon="8.876887">
        <time>1970-01-01T00:00:00+00:00</time>
        <ele>1542.0</ele>
      </trkpt>
      <trkpt lat="46.432585" lon="8.876958">
        <time>1970-01-01T00:00:00+00:00</time>
        <ele>1540.0</ele>
      </trkpt>
      <trkpt lat="46.432502" lon="8.877036">
        <time>1970-01-01T00:00:00+00:00</time>
        <ele>1536.0</ele>
      </trkpt>
      <trkpt lat="46.432442" lon="8.876974">
        <time>1970-01-01T00:00:00+00:00</time>
        <ele>1534.0</ele>
      </trkpt>
      <trkpt lat="46.432487" lon="8.877146">
        <time>1970-01-01T00:00:00+00:00</time>
        <ele>1534.0</ele>
      </trkpt>
      <trkpt lat="46.432405" lon="8.877061">
        <time>1970-01-01T00:00:00+00:00</time>
        <ele>1531.0</ele>
      </trkpt>
      <trkpt lat="46.432362" lon="8.876953">
        <time>1970-01-01T00:00:00+00:00</time>
        <ele>1530.0</ele>
      </trkpt>
      <trkpt lat="46.432298" lon="8.876951">
        <time>1970-01-01T00:00:00+00:00</time>
        <ele>1526.0</ele>
      </trkpt>
      <trkpt lat="46.432269" lon="8.876892">
        <time>1970-01-01T00:00:00+00:00</time>
        <ele>1525.0</ele>
      </trkpt>
      <trkpt lat="46.432087" lon="8.876765">
        <time>1970-01-01T00:00:00+00:00</time>
        <ele>1514.0</ele>
      </trkpt>
      <trkpt lat="46.432015" lon="8.876598">
        <time>1970-01-01T00:00:00+00:00</time>
        <ele>1513.0</ele>
      </trkpt>
      <trkpt lat="46.431875" lon="8.876406">
        <time>1970-01-01T00:00:00+00:00</time>
        <ele>1512.0</ele>
      </trkpt>
      <trkpt lat="46.431865" lon="8.876355">
        <time>1970-01-01T00:00:00+00:00</time>
        <ele>1512.0</ele>
      </trkpt>
      <trkpt lat="46.431812" lon="8.876248">
        <time>1970-01-01T00:00:00+00:00</time>
        <ele>1511.0</ele>
      </trkpt>
      <trkpt lat="46.431689" lon="8.876166">
        <time>1970-01-01T00:00:00+00:00</time>
        <ele>1504.0</ele>
      </trkpt>
      <trkpt lat="46.431583" lon="8.875893">
        <time>1970-01-01T00:00:00+00:00</time>
        <ele>1498.0</ele>
      </trkpt>
      <trkpt lat="46.431497" lon="8.875795">
        <time>1970-01-01T00:00:00+00:00</time>
        <ele>1491.0</ele>
      </trkpt>
      <trkpt lat="46.431469" lon="8.875644">
        <time>1970-01-01T00:00:00+00:00</time>
        <ele>1489.0</ele>
      </trkpt>
      <trkpt lat="46.431459" lon="8.875363">
        <time>1970-01-01T00:00:00+00:00</time>
        <ele>1485.0</ele>
      </trkpt>
      <trkpt lat="46.431439" lon="8.875304">
        <time>1970-01-01T00:00:00+00:00</time>
        <ele>1484.0</ele>
      </trkpt>
      <trkpt lat="46.431455" lon="8.875218">
        <time>1970-01-01T00:00:00+00:00</time>
        <ele>1482.0</ele>
      </trkpt>
      <trkpt lat="46.431516" lon="8.875169">
        <time>1970-01-01T00:00:00+00:00</time>
        <ele>1485.0</ele>
      </trkpt>
      <trkpt lat="46.431453" lon="8.875111">
        <time>1970-01-01T00:00:00+00:00</time>
        <ele>1479.0</ele>
      </trkpt>
      <trkpt lat="46.431479" lon="8.874946">
        <time>1970-01-01T00:00:00+00:00</time>
        <ele>1476.0</ele>
      </trkpt>
      <trkpt lat="46.431521" lon="8.874898">
        <time>1970-01-01T00:00:00+00:00</time>
        <ele>1478.0</ele>
      </trkpt>
      <trkpt lat="46.431508" lon="8.874815">
        <time>1970-01-01T00:00:00+00:00</time>
        <ele>1475.0</ele>
      </trkpt>
      <trkpt lat="46.431554" lon="8.874751">
        <time>1970-01-01T00:00:00+00:00</time>
        <ele>1477.0</ele>
      </trkpt>
      <trkpt lat="46.431523" lon="8.874704">
        <time>1970-01-01T00:00:00+00:00</time>
        <ele>1473.0</ele>
      </trkpt>
      <trkpt lat="46.431513" lon="8.874556">
        <time>1970-01-01T00:00:00+00:00</time>
        <ele>1466.0</ele>
      </trkpt>
      <trkpt lat="46.431597" lon="8.874377">
        <time>1970-01-01T00:00:00+00:00</time>
        <ele>1464.0</ele>
      </trkpt>
      <trkpt lat="46.431459" lon="8.874461">
        <time>1970-01-01T00:00:00+00:00</time>
        <ele>1460.0</ele>
      </trkpt>
      <trkpt lat="46.431508" lon="8.87419">
        <time>1970-01-01T00:00:00+00:00</time>
        <ele>1452.0</ele>
      </trkpt>
      <trkpt lat="46.431459" lon="8.874225">
        <time>1970-01-01T00:00:00+00:00</time>
        <ele>1450.0</ele>
      </trkpt>
      <trkpt lat="46.431534" lon="8.874002">
        <time>1970-01-01T00:00:00+00:00</time>
        <ele>1448.0</ele>
      </trkpt>
      <trkpt lat="46.43137" lon="8.874029">
        <time>1970-01-01T00:00:00+00:00</time>
        <ele>1442.0</ele>
      </trkpt>
      <trkpt lat="46.431367" lon="8.873947">
        <time>1970-01-01T00:00:00+00:00</time>
        <ele>1441.0</ele>
      </trkpt>
      <trkpt lat="46.431271" lon="8.873818">
        <time>1970-01-01T00:00:00+00:00</time>
        <ele>1436.0</ele>
      </trkpt>
      <trkpt lat="46.431132" lon="8.873952">
        <time>1970-01-01T00:00:00+00:00</time>
        <ele>1432.0</ele>
      </trkpt>
      <trkpt lat="46.431016" lon="8.874149">
        <time>1970-01-01T00:00:00+00:00</time>
        <ele>1428.0</ele>
      </trkpt>
      <trkpt lat="46.43093" lon="8.874163">
        <time>1970-01-01T00:00:00+00:00</time>
        <ele>1423.0</ele>
      </trkpt>
      <trkpt lat="46.430907" lon="8.874058">
        <time>1970-01-01T00:00:00+00:00</time>
        <ele>1420.0</ele>
      </trkpt>
      <trkpt lat="46.430979" lon="8.873928">
        <time>1970-01-01T00:00:00+00:00</time>
        <ele>1423.0</ele>
      </trkpt>
      <trkpt lat="46.430956" lon="8.873731">
        <time>1970-01-01T00:00:00+00:00</time>
        <ele>1417.0</ele>
      </trkpt>
      <trkpt lat="46.430778" lon="8.873194">
        <time>1970-01-01T00:00:00+00:00</time>
        <ele>1397.0</ele>
      </trkpt>
      <trkpt lat="46.43087" lon="8.873035">
        <time>1970-01-01T00:00:00+00:00</time>
        <ele>1396.0</ele>
      </trkpt>
      <trkpt lat="46.430817" lon="8.872766">
        <time>1970-01-01T00:00:00+00:00</time>
        <ele>1385.0</ele>
      </trkpt>
      <trkpt lat="46.43088" lon="8.872613">
        <time>1970-01-01T00:00:00+00:00</time>
        <ele>1382.0</ele>
      </trkpt>
      <trkpt lat="46.430784" lon="8.872104">
        <time>1970-01-01T00:00:00+00:00</time>
        <ele>1365.0</ele>
      </trkpt>
      <trkpt lat="46.43084" lon="8.871907">
        <time>1970-01-01T00:00:00+00:00</time>
        <ele>1360.0</ele>
      </trkpt>
      <trkpt lat="46.430764" lon="8.871926">
        <time>1970-01-01T00:00:00+00:00</time>
        <ele>1357.0</ele>
      </trkpt>
      <trkpt lat="46.430612" lon="8.87172">
        <time>1970-01-01T00:00:00+00:00</time>
        <ele>1342.0</ele>
      </trkpt>
      <trkpt lat="46.430572" lon="8.870375">
        <time>1970-01-01T00:00:00+00:00</time>
        <ele>1304.0</ele>
      </trkpt>
      <trkpt lat="46.430705" lon="8.870202">
        <time>1970-01-01T00:00:00+00:00</time>
        <ele>1305.0</ele>
      </trkpt>
      <trkpt lat="46.430854" lon="8.869194">
        <time>1970-01-01T00:00:00+00:00</time>
        <ele>1276.0</ele>
      </trkpt>
      <trkpt lat="46.431036" lon="8.868853">
        <time>1970-01-01T00:00:00+00:00</time>
        <ele>1264.0</ele>
      </trkpt>
      <trkpt lat="46.431152" lon="8.868363">
        <time>1970-01-01T00:00:00+00:00</time>
        <ele>1250.0</ele>
      </trkpt>
      <trkpt lat="46.431496" lon="8.867984">
        <time>1970-01-01T00:00:00+00:00</time>
        <ele>1242.0</ele>
      </trkpt>
      <trkpt lat="46.431525" lon="8.867778">
        <time>1970-01-01T00:00:00+00:00</time>
        <ele>1235.0</ele>
      </trkpt>
      <trkpt lat="46.431833" lon="8.867514">
        <time>1970-01-01T00:00:00+00:00</time>
        <ele>1225.0</ele>
      </trkpt>
      <trkpt lat="46.432068" lon="8.867158">
        <time>1970-01-01T00:00:00+00:00</time>
        <ele>1208.0</ele>
      </trkpt>
      <trkpt lat="46.432062" lon="8.866957">
        <time>1970-01-01T00:00:00+00:00</time>
        <ele>1202.0</ele>
      </trkpt>
      <trkpt lat="46.431979" lon="8.86688">
        <time>1970-01-01T00:00:00+00:00</time>
        <ele>1198.0</ele>
      </trkpt>
      <trkpt lat="46.432022" lon="8.86675">
        <time>1970-01-01T00:00:00+00:00</time>
        <ele>1192.0</ele>
      </trkpt>
      <trkpt lat="46.431956" lon="8.866582">
        <time>1970-01-01T00:00:00+00:00</time>
        <ele>1185.0</ele>
      </trkpt>
      <trkpt lat="46.431731" lon="8.86639">
        <time>1970-01-01T00:00:00+00:00</time>
        <ele>1174.0</ele>
      </trkpt>
      <trkpt lat="46.431516" lon="8.866525">
        <time>1970-01-01T00:00:00+00:00</time>
        <ele>1172.0</ele>
      </trkpt>
      <trkpt lat="46.431287" lon="8.866525">
        <time>1970-01-01T00:00:00+00:00</time>
        <ele>1165.0</ele>
      </trkpt>
      <trkpt lat="46.431181" lon="8.866424">
        <time>1970-01-01T00:00:00+00:00</time>
        <ele>1157.0</ele>
      </trkpt>
      <trkpt lat="46.430996" lon="8.866405">
        <time>1970-01-01T00:00:00+00:00</time>
        <ele>1148.0</ele>
      </trkpt>
      <trkpt lat="46.430943" lon="8.86627">
        <time>1970-01-01T00:00:00+00:00</time>
        <ele>1142.0</ele>
      </trkpt>
      <trkpt lat="46.430788" lon="8.866299">
        <time>1970-01-01T00:00:00+00:00</time>
        <ele>1137.0</ele>
      </trkpt>
      <trkpt lat="46.430778" lon="8.865963">
        <time>1970-01-01T00:00:00+00:00</time>
        <ele>1126.0</ele>
      </trkpt>
      <trkpt lat="46.430642" lon="8.866011">
        <time>1970-01-01T00:00:00+00:00</time>
        <ele>1122.0</ele>
      </trkpt>
      <trkpt lat="46.430864" lon="8.865358">
        <time>1970-01-01T00:00:00+00:00</time>
        <ele>1113.0</ele>
      </trkpt>
      <trkpt lat="46.430927" lon="8.865055">
        <time>1970-01-01T00:00:00+00:00</time>
        <ele>1106.0</ele>
      </trkpt>
      <trkpt lat="46.430797" lon="8.86495">
        <time>1970-01-01T00:00:00+00:00</time>
        <ele>1098.0</ele>
      </trkpt>
      <trkpt lat="46.43052" lon="8.865027">
        <time>1970-01-01T00:00:00+00:00</time>
        <ele>1087.0</ele>
      </trkpt>
      <trkpt lat="46.430579" lon="8.864786">
        <time>1970-01-01T00:00:00+00:00</time>
        <ele>1085.0</ele>
      </trkpt>
      <trkpt lat="46.430556" lon="8.864537">
        <time>1970-01-01T00:00:00+00:00</time>
        <ele>1080.0</ele>
      </trkpt>
      <trkpt lat="46.431069" lon="8.864383">
        <time>1970-01-01T00:00:00+00:00</time>
        <ele>1082.0</ele>
      </trkpt>
      <trkpt lat="46.431671" lon="8.864119">
        <time>1970-01-01T00:00:00+00:00</time>
        <ele>1065.0</ele>
      </trkpt>
      <trkpt lat="46.431839" lon="8.864089">
        <time>1970-01-01T00:00:00+00:00</time>
        <ele>1063.0</ele>
      </trkpt>
      <trkpt lat="46.431921" lon="8.864057">
        <time>1970-01-01T00:00:00+00:00</time>
        <ele>1060.0</ele>
      </trkpt>
      <trkpt lat="46.431981" lon="8.863883">
        <time>1970-01-01T00:00:00+00:00</time>
        <ele>1052.0</ele>
      </trkpt>
      <trkpt lat="46.431947" lon="8.863822">
        <time>1970-01-01T00:00:00+00:00</time>
        <ele>1049.0</ele>
      </trkpt>
      <trkpt lat="46.431929" lon="8.863373">
        <time>1970-01-01T00:00:00+00:00</time>
        <ele>1026.0</ele>
      </trkpt>
      <trkpt lat="46.43187" lon="8.863168">
        <time>1970-01-01T00:00:00+00:00</time>
        <ele>1016.0</ele>
      </trkpt>
      <trkpt lat="46.431902" lon="8.86296">
        <time>1970-01-01T00:00:00+00:00</time>
        <ele>1015.0</ele>
      </trkpt>
      <trkpt lat="46.431902" lon="8.862869">
        <time>1970-01-01T00:00:00+00:00</time>
        <ele>1014.0</ele>
      </trkpt>
      <trkpt lat="46.431885" lon="8.862685">
        <time>1970-01-01T00:00:00+00:00</time>
        <ele>1012.0</ele>
      </trkpt>
      <trkpt lat="46.431849" lon="8.862607">
        <time>1970-01-01T00:00:00+00:00</time>
        <ele>1010.0</ele>
      </trkpt>
      <trkpt lat="46.431829" lon="8.862583">
        <time>1970-01-01T00:00:00+00:00</time>
        <ele>1009.0</ele>
      </trkpt>
      <trkpt lat="46.431799" lon="8.862589">
        <time>1970-01-01T00:00:00+00:00</time>
        <ele>1008.0</ele>
      </trkpt>
      <trkpt lat="46.431619" lon="8.863021">
        <time>1970-01-01T00:00:00+00:00</time>
        <ele>1006.0</ele>
      </trkpt>
      <trkpt lat="46.431583" lon="8.863015">
        <time>1970-01-01T00:00:00+00:00</time>
        <ele>1004.0</ele>
      </trkpt>
      <trkpt lat="46.431548" lon="8.862968">
        <time>1970-01-01T00:00:00+00:00</time>
        <ele>1002.0</ele>
      </trkpt>
      <trkpt lat="46.431517" lon="8.862881">
        <time>1970-01-01T00:00:00+00:00</time>
        <ele>999.0</ele>
      </trkpt>
      <trkpt lat="46.431517" lon="8.862787">
        <time>1970-01-01T00:00:00+00:00</time>
        <ele>998.0</ele>
      </trkpt>
      <trkpt lat="46.431469" lon="8.862877">
        <time>1970-01-01T00:00:00+00:00</time>
        <ele>998.0</ele>
      </trkpt>
      <trkpt lat="46.431467" lon="8.86283">
        <time>1970-01-01T00:00:00+00:00</time>
        <ele>997.0</ele>
      </trkpt>
      <trkpt lat="46.431487" lon="8.862769">
        <time>1970-01-01T00:00:00+00:00</time>
        <ele>996.0</ele>
      </trkpt>
      <trkpt lat="46.431501" lon="8.862716">
        <time>1970-01-01T00:00:00+00:00</time>
        <ele>996.0</ele>
      </trkpt>
      <trkpt lat="46.431456" lon="8.862738">
        <time>1970-01-01T00:00:00+00:00</time>
        <ele>994.0</ele>
      </trkpt>
      <trkpt lat="46.431433" lon="8.862708">
        <time>1970-01-01T00:00:00+00:00</time>
        <ele>993.0</ele>
      </trkpt>
      <trkpt lat="46.431425" lon="8.862627">
        <time>1970-01-01T00:00:00+00:00</time>
        <ele>991.0</ele>
      </trkpt>
      <trkpt lat="46.431499" lon="8.862396">
        <time>1970-01-01T00:00:00+00:00</time>
        <ele>991.0</ele>
      </trkpt>
      <trkpt lat="46.431487" lon="8.862355">
        <time>1970-01-01T00:00:00+00:00</time>
        <ele>990.0</ele>
      </trkpt>
      <trkpt lat="46.431457" lon="8.862346">
        <time>1970-01-01T00:00:00+00:00</time>
        <ele>988.0</ele>
      </trkpt>
      <trkpt lat="46.4314" lon="8.862545">
        <time>1970-01-01T00:00:00+00:00</time>
        <ele>989.0</ele>
      </trkpt>
      <trkpt lat="46.431215" lon="8.862797">
        <time>1970-01-01T00:00:00+00:00</time>
        <ele>989.0</ele>
      </trkpt>
      <trkpt lat="46.431152" lon="8.863027">
        <time>1970-01-01T00:00:00+00:00</time>
        <ele>995.0</ele>
      </trkpt>
      <trkpt lat="46.431104" lon="8.863114">
        <time>1970-01-01T00:00:00+00:00</time>
        <ele>998.0</ele>
      </trkpt>
      <trkpt lat="46.431007" lon="8.863201">
        <time>1970-01-01T00:00:00+00:00</time>
        <ele>1001.0</ele>
      </trkpt>
      <trkpt lat="46.430869" lon="8.863234">
        <time>1970-01-01T00:00:00+00:00</time>
        <ele>1002.0</ele>
      </trkpt>
      <trkpt lat="46.430694" lon="8.863241">
        <time>1970-01-01T00:00:00+00:00</time>
        <ele>1003.0</ele>
      </trkpt>
      <trkpt lat="46.430402" lon="8.863107">
        <time>1970-01-01T00:00:00+00:00</time>
        <ele>996.0</ele>
      </trkpt>
      <trkpt lat="46.430031" lon="8.863088">
        <time>1970-01-01T00:00:00+00:00</time>
        <ele>994.0</ele>
      </trkpt>
      <trkpt lat="46.429824" lon="8.863044">
        <time>1970-01-01T00:00:00+00:00</time>
        <ele>990.0</ele>
      </trkpt>
      <trkpt lat="46.429642" lon="8.862991">
        <time>1970-01-01T00:00:00+00:00</time>
        <ele>986.0</ele>
      </trkpt>
      <trkpt lat="46.429303" lon="8.862825">
        <time>1970-01-01T00:00:00+00:00</time>
        <ele>973.0</ele>
      </trkpt>
      <trkpt lat="46.429203" lon="8.862851">
        <time>1970-01-01T00:00:00+00:00</time>
        <ele>971.0</ele>
      </trkpt>
      <trkpt lat="46.429117" lon="8.862979">
        <time>1970-01-01T00:00:00+00:00</time>
        <ele>970.0</ele>
      </trkpt>
      <trkpt lat="46.428592" lon="8.864265">
        <time>1970-01-01T00:00:00+00:00</time>
        <ele>976.0</ele>
      </trkpt>
      <trkpt lat="46.42832" lon="8.864708">
        <time>1970-01-01T00:00:00+00:00</time>
        <ele>972.0</ele>
      </trkpt>
      <trkpt lat="46.427977" lon="8.865379">
        <time>1970-01-01T00:00:00+00:00</time>
        <ele>974.0</ele>
      </trkpt>
      <trkpt lat="46.427116" lon="8.867262">
        <time>1970-01-01T00:00:00+00:00</time>
        <ele>980.0</ele>
      </trkpt>
      <trkpt lat="46.426979" lon="8.867666">
        <time>1970-01-01T00:00:00+00:00</time>
        <ele>986.0</ele>
      </trkpt>
      <trkpt lat="46.426904" lon="8.867826">
        <time>1970-01-01T00:00:00+00:00</time>
        <ele>986.0</ele>
      </trkpt>
      <trkpt lat="46.426671" lon="8.868262">
        <time>1970-01-01T00:00:00+00:00</time>
        <ele>984.0</ele>
      </trkpt>
      <trkpt lat="46.425912" lon="8.869548">
        <time>1970-01-01T00:00:00+00:00</time>
        <ele>990.0</ele>
      </trkpt>
      <trkpt lat="46.425693" lon="8.870111">
        <time>1970-01-01T00:00:00+00:00</time>
        <ele>992.0</ele>
      </trkpt>
      <trkpt lat="46.425521" lon="8.870389">
        <time>1970-01-01T00:00:00+00:00</time>
        <ele>996.0</ele>
      </trkpt>
      <trkpt lat="46.425454" lon="8.870457">
        <time>1970-01-01T00:00:00+00:00</time>
        <ele>997.0</ele>
      </trkpt>
      <trkpt lat="46.42511" lon="8.870649">
        <time>1970-01-01T00:00:00+00:00</time>
        <ele>996.0</ele>
      </trkpt>
      <trkpt lat="46.424718" lon="8.87092">
        <time>1970-01-01T00:00:00+00:00</time>
        <ele>993.0</ele>
      </trkpt>
      <trkpt lat="46.42438" lon="8.871412">
        <time>1970-01-01T00:00:00+00:00</time>
        <ele>997.0</ele>
      </trkpt>
      <trkpt lat="46.424228" lon="8.871672">
        <time>1970-01-01T00:00:00+00:00</time>
        <ele>998.0</ele>
      </trkpt>
      <trkpt lat="46.42365" lon="8.872044">
        <time>1970-01-01T00:00:00+00:00</time>
        <ele>996.0</ele>
      </trkpt>
      <trkpt lat="46.423405" lon="8.872279">
        <time>1970-01-01T00:00:00+00:00</time>
        <ele>998.0</ele>
      </trkpt>
      <trkpt lat="46.423118" lon="8.87249">
        <time>1970-01-01T00:00:00+00:00</time>
        <ele>995.0</ele>
      </trkpt>
      <trkpt lat="46.422804" lon="8.872899">
        <time>1970-01-01T00:00:00+00:00</time>
        <ele>999.0</ele>
      </trkpt>
      <trkpt lat="46.422104" lon="8.873445">
        <time>1970-01-01T00:00:00+00:00</time>
        <ele>988.0</ele>
      </trkpt>
      <trkpt lat="46.422002" lon="8.873551">
        <time>1970-01-01T00:00:00+00:00</time>
        <ele>989.0</ele>
      </trkpt>
      <trkpt lat="46.421807" lon="8.873823">
        <time>1970-01-01T00:00:00+00:00</time>
        <ele>993.0</ele>
      </trkpt>
      <trkpt lat="46.421501" lon="8.874178">
        <time>1970-01-01T00:00:00+00:00</time>
        <ele>992.0</ele>
      </trkpt>
      <trkpt lat="46.421291" lon="8.874473">
        <time>1970-01-01T00:00:00+00:00</time>
        <ele>994.0</ele>
      </trkpt>
      <trkpt lat="46.421211" lon="8.874532">
        <time>1970-01-01T00:00:00+00:00</time>
        <ele>994.0</ele>
      </trkpt>
      <trkpt lat="46.420988" lon="8.874635">
        <time>1970-01-01T00:00:00+00:00</time>
        <ele>991.0</ele>
      </trkpt>
      <trkpt lat="46.42089" lon="8.874747">
        <time>1970-01-01T00:00:00+00:00</time>
        <ele>991.0</ele>
      </trkpt>
      <trkpt lat="46.420838" lon="8.874853">
        <time>1970-01-01T00:00:00+00:00</time>
        <ele>993.0</ele>
      </trkpt>
      <trkpt lat="46.42077" lon="8.874899">
        <time>1970-01-01T00:00:00+00:00</time>
        <ele>993.0</ele>
      </trkpt>
      <trkpt lat="46.420513" lon="8.875004">
        <time>1970-01-01T00:00:00+00:00</time>
        <ele>992.0</ele>
      </trkpt>
      <trkpt lat="46.420369" lon="8.875185">
        <time>1970-01-01T00:00:00+00:00</time>
        <ele>997.0</ele>
      </trkpt>
      <trkpt lat="46.420296" lon="8.875352">
        <time>1970-01-01T00:00:00+00:00</time>
        <ele>1004.0</ele>
      </trkpt>
      <trkpt lat="46.420227" lon="8.875437">
        <time>1970-01-01T00:00:00+00:00</time>
        <ele>1007.0</ele>
      </trkpt>
      <trkpt lat="46.420152" lon="8.875482">
        <time>1970-01-01T00:00:00+00:00</time>
        <ele>1008.0</ele>
      </trkpt>
      <trkpt lat="46.420098" lon="8.875489">
        <time>1970-01-01T00:00:00+00:00</time>
        <ele>1008.0</ele>
      </trkpt>
      <trkpt lat="46.419944" lon="8.875391">
        <time>1970-01-01T00:00:00+00:00</time>
        <ele>1003.0</ele>
      </trkpt>
      <trkpt lat="46.419846" lon="8.875381">
        <time>1970-01-01T00:00:00+00:00</time>
        <ele>1003.0</ele>
      </trkpt>
      <trkpt lat="46.419427" lon="8.875489">
        <time>1970-01-01T00:00:00+00:00</time>
        <ele>1009.0</ele>
      </trkpt>
      <trkpt lat="46.419104" lon="8.875512">
        <time>1970-01-01T00:00:00+00:00</time>
        <ele>1004.0</ele>
      </trkpt>
      <trkpt lat="46.418685" lon="8.875688">
        <time>1970-01-01T00:00:00+00:00</time>
        <ele>1006.0</ele>
      </trkpt>
      <trkpt lat="46.417548" lon="8.876065">
        <time>1970-01-01T00:00:00+00:00</time>
        <ele>1003.0</ele>
      </trkpt>
      <trkpt lat="46.417133" lon="8.876304">
        <time>1970-01-01T00:00:00+00:00</time>
        <ele>1007.0</ele>
      </trkpt>
      <trkpt lat="46.416817" lon="8.876406">
        <time>1970-01-01T00:00:00+00:00</time>
        <ele>1003.0</ele>
      </trkpt>
      <trkpt lat="46.416694" lon="8.876478">
        <time>1970-01-01T00:00:00+00:00</time>
        <ele>1001.0</ele>
      </trkpt>
      <trkpt lat="46.416652" lon="8.876542">
        <time>1970-01-01T00:00:00+00:00</time>
        <ele>1001.0</ele>
      </trkpt>
      <trkpt lat="46.416494" lon="8.87699">
        <time>1970-01-01T00:00:00+00:00</time>
        <ele>1006.0</ele>
      </trkpt>
      <trkpt lat="46.416425" lon="8.877123">
        <time>1970-01-01T00:00:00+00:00</time>
        <ele>1007.0</ele>
      </trkpt>
      <trkpt lat="46.416335" lon="8.877177">
        <time>1970-01-01T00:00:00+00:00</time>
        <ele>1007.0</ele>
      </trkpt>
      <trkpt lat="46.416241" lon="8.87718">
        <time>1970-01-01T00:00:00+00:00</time>
        <ele>1007.0</ele>
      </trkpt>
      <trkpt lat="46.416131" lon="8.877148">
        <time>1970-01-01T00:00:00+00:00</time>
        <ele>1008.0</ele>
      </trkpt>
      <trkpt lat="46.415867" lon="8.876996">
        <time>1970-01-01T00:00:00+00:00</time>
        <ele>1010.0</ele>
      </trkpt>
      <trkpt lat="46.415792" lon="8.876979">
        <time>1970-01-01T00:00:00+00:00</time>
        <ele>1009.0</ele>
      </trkpt>
      <trkpt lat="46.415655" lon="8.877003">
        <time>1970-01-01T00:00:00+00:00</time>
        <ele>1009.0</ele>
      </trkpt>
      <trkpt lat="46.415288" lon="8.877275">
        <time>1970-01-01T00:00:00+00:00</time>
        <ele>1008.0</ele>
      </trkpt>
      <trkpt lat="46.414796" lon="8.877737">
        <time>1970-01-01T00:00:00+00:00</time>
        <ele>1002.0</ele>
      </trkpt>
      <trkpt lat="46.414755" lon="8.877795">
        <time>1970-01-01T00:00:00+00:00</time>
        <ele>1001.0</ele>
      </trkpt>
      <trkpt lat="46.414719" lon="8.877905">
        <time>1970-01-01T00:00:00+00:00</time>
        <ele>1002.0</ele>
      </trkpt>
      <trkpt lat="46.414679" lon="8.878182">
        <time>1970-01-01T00:00:00+00:00</time>
        <ele>1005.0</ele>
      </trkpt>
      <trkpt lat="46.414614" lon="8.878389">
        <time>1970-01-01T00:00:00+00:00</time>
        <ele>1007.0</ele>
      </trkpt>
      <trkpt lat="46.414271" lon="8.878785">
        <time>1970-01-01T00:00:00+00:00</time>
        <ele>1008.0</ele>
      </trkpt>
      <trkpt lat="46.414158" lon="8.878923">
        <time>1970-01-01T00:00:00+00:00</time>
        <ele>1007.0</ele>
      </trkpt>
      <trkpt lat="46.414089" lon="8.879108">
        <time>1970-01-01T00:00:00+00:00</time>
        <ele>1008.0</ele>
      </trkpt>
      <trkpt lat="46.414026" lon="8.879504">
        <time>1970-01-01T00:00:00+00:00</time>
        <ele>1011.0</ele>
      </trkpt>
      <trkpt lat="46.413918" lon="8.879907">
        <time>1970-01-01T00:00:00+00:00</time>
        <ele>1013.0</ele>
      </trkpt>
      <trkpt lat="46.413794" lon="8.880219">
        <time>1970-01-01T00:00:00+00:00</time>
        <ele>1015.0</ele>
      </trkpt>
      <trkpt lat="46.413599" lon="8.880588">
        <time>1970-01-01T00:00:00+00:00</time>
        <ele>1015.0</ele>
      </trkpt>
      <trkpt lat="46.413445" lon="8.880955">
        <time>1970-01-01T00:00:00+00:00</time>
        <ele>1016.0</ele>
      </trkpt>
      <trkpt lat="46.413302" lon="8.881193">
        <time>1970-01-01T00:00:00+00:00</time>
        <ele>1015.0</ele>
      </trkpt>
      <trkpt lat="46.413267" lon="8.881262">
        <time>1970-01-01T00:00:00+00:00</time>
        <ele>1014.0</ele>
      </trkpt>
      <trkpt lat="46.413205" lon="8.881385">
        <time>1970-01-01T00:00:00+00:00</time>
        <ele>1014.0</ele>
      </trkpt>
    </trkseg>
  </trk>
</gpx>
